Time,TemperatureF,DewpointF,PressureIn,WindDirection,WindDirectionDegrees,WindSpeedMPH,WindSpeedGustMPH,Humidity,HourlyPrecipIn,Conditions,Clouds,dailyrainin,SoftwareType,DateUTC
2013-01-06 00:00:00,37.9,19.5,29.35,North,0,0.0,0.0,47,0.00,,,0.00,VWS V12.08,2013-01-06 05:00:00,
2013-01-06 00:01:00,37.9,19.5,29.35,North,0,0.0,0.0,47,0.00,,,0.00,VWS V12.08,2013-01-06 05:01:00,
2013-01-06 00:02:00,37.9,19.5,29.35,North,0,0.0,0.0,47,0.00,,,0.00,VWS V12.08,2013-01-06 05:02:00,
2013-01-06 00:03:00,37.9,19.5,29.35,North,0,0.0,0.0,47,0.00,,,0.00,VWS V12.08,2013-01-06 05:03:00,
2013-01-06 00:04:00,37.9,19.5,29.35,North,0,0.0,0.0,47,0.00,,,0.00,VWS V12.08,2013-01-06 05:04:00,
2013-01-06 00:05:00,40.8,31.5,29.29,North,0,0.0,0.0,69,0.00,,,0.00,VWS V12.08,2013-01-06 05:05:00,
2013-01-06 00:06:00,37.9,19.5,29.35,North,0,0.0,0.0,47,0.00,,,0.00,VWS V12.08,2013-01-06 05:06:00,
2013-01-06 00:07:00,37.9,19.5,29.35,North,0,0.0,0.0,47,0.00,,,0.00,VWS V12.08,2013-01-06 05:07:00,
2013-01-06 00:08:00,37.9,19.5,29.35,North,0,0.0,0.0,47,0.00,,,0.00,VWS V12.08,2013-01-06 05:08:00,
2013-01-06 00:09:00,37.9,19.5,29.35,North,0,0.0,0.0,47,0.00,,,0.00,VWS V12.08,2013-01-06 05:09:00,
2013-01-06 00:10:00,37.9,19.5,29.35,North,0,0.0,0.0,47,0.00,,,0.00,VWS V12.08,2013-01-06 05:10:00,
2013-01-06 00:11:00,37.9,19.5,29.35,North,0,0.0,0.0,47,0.00,,,0.00,VWS V12.08,2013-01-06 05:11:00,
2013-01-06 00:12:00,40.6,33.3,29.29,North,0,0.0,0.0,75,0.00,,,0.00,VWS V12.08,2013-01-06 05:12:00,
2013-01-06 00:13:00,37.9,19.5,29.35,North,0,0.0,0.0,47,0.00,,,0.00,VWS V12.08,2013-01-06 05:13:00,
2013-01-06 00:14:00,37.9,19.5,29.35,North,0,0.0,0.0,47,0.00,,,0.00,VWS V12.08,2013-01-06 05:14:00,
2013-01-06 00:15:00,37.9,19.5,29.35,North,0,0.0,0.0,47,0.00,,,0.00,VWS V12.08,2013-01-06 05:15:00,
2013-01-06 00:16:00,37.8,19.4,29.35,North,0,0.0,0.0,47,0.00,,,0.00,VWS V12.08,2013-01-06 05:16:00,
2013-01-06 00:17:00,37.8,19.4,29.35,North,0,0.0,0.0,47,0.00,,,0.00,VWS V12.08,2013-01-06 05:17:00,
2013-01-06 00:18:00,40.6,33.3,29.29,North,0,0.0,0.0,75,0.00,,,0.00,VWS V12.08,2013-01-06 05:18:00,
2013-01-06 00:19:00,37.6,19.2,29.35,North,0,0.0,0.0,47,0.00,,,0.00,VWS V12.08,2013-01-06 05:19:00,
2013-01-06 00:20:00,37.6,19.2,29.35,North,0,0.0,0.0,47,0.00,,,0.00,VWS V12.08,2013-01-06 05:20:00,
2013-01-06 00:21:00,37.6,19.2,29.35,North,0,0.0,0.0,47,0.00,,,0.00,VWS V12.08,2013-01-06 05:21:00,
2013-01-06 00:22:00,37.6,19.2,29.35,North,0,0.0,0.0,47,0.00,,,0.00,VWS V12.08,2013-01-06 05:22:00,
2013-01-06 00:23:00,40.5,33.8,29.29,North,0,0.0,0.0,77,0.00,,,0.00,VWS V12.08,2013-01-06 05:23:00,
2013-01-06 00:24:00,37.6,19.2,29.35,North,0,0.0,0.0,47,0.00,,,0.00,VWS V12.08,2013-01-06 05:24:00,
2013-01-06 00:25:00,37.4,19.0,29.35,North,0,0.0,0.0,47,0.00,,,0.00,VWS V12.08,2013-01-06 05:25:00,
2013-01-06 00:26:00,37.4,19.0,29.35,North,0,0.0,0.0,47,0.00,,,0.00,VWS V12.08,2013-01-06 05:26:00,
2013-01-06 00:27:00,37.4,19.0,29.35,North,0,0.0,0.0,47,0.00,,,0.00,VWS V12.08,2013-01-06 05:27:00,
2013-01-06 00:28:00,37.4,19.0,29.35,North,0,0.0,0.0,47,0.00,,,0.00,VWS V12.08,2013-01-06 05:28:00,
2013-01-06 00:29:00,37.4,19.0,29.35,North,0,0.0,0.0,47,0.00,,,0.00,VWS V12.08,2013-01-06 05:29:00,
2013-01-06 00:30:00,40.5,35.7,29.29,North,0,0.0,0.0,83,0.00,,,0.00,VWS V12.08,2013-01-06 05:30:00,
2013-01-06 00:31:00,37.4,19.0,29.35,North,0,0.0,0.0,47,0.00,,,0.00,VWS V12.08,2013-01-06 05:31:00,
2013-01-06 00:32:00,37.4,19.0,29.35,North,0,0.0,0.0,47,0.00,,,0.00,VWS V12.08,2013-01-06 05:32:00,
2013-01-06 00:33:00,37.2,19.8,29.35,North,0,0.0,0.0,49,0.00,,,0.00,VWS V12.08,2013-01-06 05:33:00,
2013-01-06 00:34:00,37.2,19.8,29.35,North,0,0.0,0.0,49,0.00,,,0.00,VWS V12.08,2013-01-06 05:34:00,
2013-01-06 00:35:00,37.2,19.8,29.32,North,0,0.0,0.0,49,0.00,,,0.00,VWS V12.08,2013-01-06 05:35:00,
2013-01-06 00:36:00,37.2,19.8,29.32,North,0,0.0,0.0,49,0.00,,,0.00,VWS V12.08,2013-01-06 05:36:00,
2013-01-06 00:37:00,37.2,19.8,29.32,North,0,0.0,0.0,49,0.00,,,0.00,VWS V12.08,2013-01-06 05:37:00,
2013-01-06 00:38:00,37.2,19.8,29.32,North,0,0.0,0.0,49,0.00,,,0.00,VWS V12.08,2013-01-06 05:38:00,
2013-01-06 00:39:00,37.2,19.8,29.32,North,0,0.0,0.0,49,0.00,,,0.00,VWS V12.08,2013-01-06 05:39:00,
2013-01-06 00:40:00,40.3,35.5,29.32,North,0,0.0,0.0,83,0.00,,,0.00,VWS V12.08,2013-01-06 05:40:00,
2013-01-06 00:41:00,37.0,19.7,29.32,North,0,0.0,0.0,49,0.00,,,0.00,VWS V12.08,2013-01-06 05:41:00,
2013-01-06 00:42:00,37.0,19.7,29.32,North,0,0.0,0.0,49,0.00,,,0.00,VWS V12.08,2013-01-06 05:42:00,
2013-01-06 00:43:00,37.0,19.7,29.32,North,0,0.0,0.0,49,0.00,,,0.00,VWS V12.08,2013-01-06 05:43:00,
2013-01-06 00:44:00,37.0,19.7,29.32,North,0,0.0,0.0,49,0.00,,,0.00,VWS V12.08,2013-01-06 05:44:00,
2013-01-06 00:45:00,36.9,19.5,29.32,North,0,0.0,0.0,49,0.00,,,0.00,VWS V12.08,2013-01-06 05:45:00,
2013-01-06 00:46:00,36.9,19.5,29.32,North,0,0.0,0.0,49,0.00,,,0.00,VWS V12.08,2013-01-06 05:46:00,
2013-01-06 00:47:00,40.3,35.5,29.32,North,0,0.0,0.0,83,0.00,,,0.00,VWS V12.08,2013-01-06 05:47:00,
2013-01-06 00:48:00,36.7,19.3,29.32,North,0,0.0,0.0,49,0.00,,,0.00,VWS V12.08,2013-01-06 05:48:00,
2013-01-06 00:49:00,36.7,19.3,29.32,North,0,0.0,0.0,49,0.00,,,0.00,VWS V12.08,2013-01-06 05:49:00,
2013-01-06 00:50:00,36.7,19.3,29.32,North,0,0.0,0.0,49,0.00,,,0.00,VWS V12.08,2013-01-06 05:50:00,
2013-01-06 00:51:00,36.7,19.3,29.32,North,0,0.0,0.0,49,0.00,,,0.00,VWS V12.08,2013-01-06 05:51:00,
2013-01-06 00:52:00,36.7,19.3,29.32,North,0,0.0,0.0,49,0.00,,,0.00,VWS V12.08,2013-01-06 05:52:00,
2013-01-06 00:53:00,40.3,35.5,29.29,North,0,0.0,0.0,83,0.00,,,0.00,VWS V12.08,2013-01-06 05:53:00,
2013-01-06 00:54:00,36.5,19.2,29.32,North,0,0.0,0.0,49,0.00,,,0.00,VWS V12.08,2013-01-06 05:54:00,
2013-01-06 00:55:00,36.5,19.2,29.32,North,0,0.0,0.0,49,0.00,,,0.00,VWS V12.08,2013-01-06 05:55:00,
2013-01-06 00:56:00,36.3,19.0,29.32,North,0,0.0,0.0,49,0.00,,,0.00,VWS V12.08,2013-01-06 05:56:00,
2013-01-06 00:57:00,36.3,19.0,29.32,North,0,0.0,0.0,49,0.00,,,0.00,VWS V12.08,2013-01-06 05:57:00,
2013-01-06 00:58:00,40.3,35.5,29.29,North,0,0.0,0.0,83,0.00,,,0.00,VWS V12.08,2013-01-06 05:58:00,
2013-01-06 00:59:00,36.3,19.0,29.32,North,0,0.0,0.0,49,0.00,,,0.00,VWS V12.08,2013-01-06 05:59:00,
2013-01-06 01:00:00,36.3,19.0,29.32,North,0,0.0,0.0,49,0.00,,,0.00,VWS V12.08,2013-01-06 06:00:00,
2013-01-06 01:01:00,36.3,19.0,29.32,North,0,0.0,0.0,49,0.00,,,0.00,VWS V12.08,2013-01-06 06:01:00,
2013-01-06 01:02:00,36.1,18.8,29.32,North,0,0.0,0.0,49,0.00,,,0.00,VWS V12.08,2013-01-06 06:02:00,
2013-01-06 01:03:00,36.1,18.8,29.32,North,0,0.0,0.0,49,0.00,,,0.00,VWS V12.08,2013-01-06 06:03:00,
2013-01-06 01:04:00,36.1,18.8,29.35,North,0,0.0,0.0,49,0.00,,,0.00,VWS V12.08,2013-01-06 06:04:00,
2013-01-06 01:05:00,40.1,35.4,29.29,North,0,0.0,0.0,83,0.00,,,0.00,VWS V12.08,2013-01-06 06:05:00,
2013-01-06 01:06:00,36.1,18.8,29.35,North,0,0.0,0.0,49,0.00,,,0.00,VWS V12.08,2013-01-06 06:06:00,
2013-01-06 01:07:00,36.1,18.8,29.35,North,0,0.0,0.0,49,0.00,,,0.00,VWS V12.08,2013-01-06 06:07:00,
2013-01-06 01:08:00,36.1,18.8,29.35,North,0,0.0,0.0,49,0.00,,,0.00,VWS V12.08,2013-01-06 06:08:00,
2013-01-06 01:09:00,36.1,18.8,29.35,North,0,0.0,0.0,49,0.00,,,0.00,VWS V12.08,2013-01-06 06:09:00,
2013-01-06 01:10:00,36.1,18.8,29.35,North,0,0.0,0.0,49,0.00,,,0.00,VWS V12.08,2013-01-06 06:10:00,
2013-01-06 01:11:00,36.1,20.7,29.35,North,0,0.0,0.0,53,0.00,,,0.00,VWS V12.08,2013-01-06 06:11:00,
2013-01-06 01:12:00,36.0,20.5,29.35,North,0,0.0,0.0,53,0.00,,,0.00,VWS V12.08,2013-01-06 06:12:00,
2013-01-06 01:13:00,40.1,36.0,29.29,North,0,0.0,0.0,85,0.00,,,0.00,VWS V12.08,2013-01-06 06:13:00,
2013-01-06 01:14:00,36.0,20.5,29.35,North,0,0.0,0.0,53,0.00,,,0.00,VWS V12.08,2013-01-06 06:14:00,
2013-01-06 01:15:00,35.8,20.3,29.35,North,0,0.0,0.0,53,0.00,,,0.00,VWS V12.08,2013-01-06 06:15:00,
2013-01-06 01:16:00,35.8,20.3,29.35,North,0,0.0,0.0,53,0.00,,,0.00,VWS V12.08,2013-01-06 06:16:00,
2013-01-06 01:17:00,35.8,20.3,29.35,North,0,0.0,0.0,53,0.00,,,0.00,VWS V12.08,2013-01-06 06:17:00,
2013-01-06 01:18:00,40.1,36.0,29.29,North,0,0.0,0.0,85,0.00,,,0.00,VWS V12.08,2013-01-06 06:18:00,
2013-01-06 01:19:00,35.8,20.3,29.35,North,0,0.0,0.0,53,0.00,,,0.00,VWS V12.08,2013-01-06 06:19:00,
2013-01-06 01:20:00,35.8,20.3,29.35,North,0,0.0,0.0,53,0.00,,,0.00,VWS V12.08,2013-01-06 06:20:00,
2013-01-06 01:21:00,35.8,20.3,29.35,North,0,0.0,0.0,53,0.00,,,0.00,VWS V12.08,2013-01-06 06:21:00,
2013-01-06 01:22:00,35.8,20.3,29.35,North,0,0.0,0.0,53,0.00,,,0.00,VWS V12.08,2013-01-06 06:22:00,
2013-01-06 01:23:00,35.8,20.3,29.35,North,0,0.0,0.0,53,0.00,,,0.00,VWS V12.08,2013-01-06 06:23:00,
2013-01-06 01:24:00,40.1,36.0,29.29,North,0,0.0,0.0,85,0.00,,,0.00,VWS V12.08,2013-01-06 06:24:00,
2013-01-06 01:25:00,35.8,20.3,29.35,North,0,0.0,0.0,53,0.00,,,0.00,VWS V12.08,2013-01-06 06:25:00,
2013-01-06 01:26:00,35.6,20.2,29.35,North,0,0.0,0.0,53,0.00,,,0.00,VWS V12.08,2013-01-06 06:26:00,
2013-01-06 01:27:00,35.6,20.2,29.35,North,0,0.0,0.0,53,0.00,,,0.00,VWS V12.08,2013-01-06 06:27:00,
2013-01-06 01:28:00,35.6,20.2,29.35,North,0,0.0,0.0,53,0.00,,,0.00,VWS V12.08,2013-01-06 06:28:00,
2013-01-06 01:29:00,39.9,36.4,29.29,North,0,0.0,0.0,87,0.00,,,0.00,VWS V12.08,2013-01-06 06:29:00,
2013-01-06 01:30:00,35.6,20.2,29.35,North,0,0.0,0.0,53,0.00,,,0.00,VWS V12.08,2013-01-06 06:30:00,
2013-01-06 01:31:00,35.6,20.2,29.35,North,0,0.0,0.0,53,0.00,,,0.00,VWS V12.08,2013-01-06 06:31:00,
2013-01-06 01:32:00,35.4,20.9,29.35,North,0,0.0,0.0,55,0.00,,,0.00,VWS V12.08,2013-01-06 06:32:00,
2013-01-06 01:33:00,35.4,20.9,29.35,North,0,0.0,0.0,55,0.00,,,0.00,VWS V12.08,2013-01-06 06:33:00,
2013-01-06 01:34:00,35.4,20.9,29.35,North,0,0.0,0.0,55,0.00,,,0.00,VWS V12.08,2013-01-06 06:34:00,
2013-01-06 01:35:00,39.9,37.0,29.29,North,0,0.0,0.0,89,0.00,,,0.00,VWS V12.08,2013-01-06 06:35:00,
2013-01-06 01:36:00,35.4,20.9,29.35,North,0,0.0,0.0,55,0.00,,,0.00,VWS V12.08,2013-01-06 06:36:00,
2013-01-06 01:37:00,35.4,20.9,29.35,North,0,0.0,0.0,55,0.00,,,0.00,VWS V12.08,2013-01-06 06:37:00,
2013-01-06 01:38:00,35.4,20.9,29.35,North,0,0.0,0.0,55,0.00,,,0.00,VWS V12.08,2013-01-06 06:38:00,
2013-01-06 01:39:00,35.4,22.5,29.35,North,0,0.0,0.0,59,0.00,,,0.00,VWS V12.08,2013-01-06 06:39:00,
2013-01-06 01:40:00,35.4,22.5,29.35,North,0,0.0,0.0,59,0.00,,,0.00,VWS V12.08,2013-01-06 06:40:00,
2013-01-06 01:41:00,39.7,37.3,29.29,North,0,0.0,0.0,91,0.00,,,0.00,VWS V12.08,2013-01-06 06:41:00,
2013-01-06 01:42:00,35.4,22.5,29.35,North,0,0.0,0.0,59,0.00,,,0.00,VWS V12.08,2013-01-06 06:42:00,
2013-01-06 01:43:00,35.2,22.4,29.35,North,0,0.0,0.0,59,0.00,,,0.00,VWS V12.08,2013-01-06 06:43:00,
2013-01-06 01:44:00,35.2,22.4,29.35,North,0,0.0,0.0,59,0.00,,,0.00,VWS V12.08,2013-01-06 06:44:00,
2013-01-06 01:45:00,35.2,22.4,29.35,North,0,0.0,0.0,59,0.00,,,0.00,VWS V12.08,2013-01-06 06:45:00,
2013-01-06 01:46:00,35.2,22.4,29.35,North,0,0.0,0.0,59,0.00,,,0.00,VWS V12.08,2013-01-06 06:46:00,
2013-01-06 01:47:00,35.2,22.4,29.35,North,0,0.0,0.0,59,0.00,,,0.00,VWS V12.08,2013-01-06 06:47:00,
2013-01-06 01:48:00,35.1,22.2,29.35,North,0,0.0,0.0,59,0.00,,,0.00,VWS V12.08,2013-01-06 06:48:00,
2013-01-06 01:49:00,35.1,22.2,29.35,North,0,0.0,0.0,59,0.00,,,0.00,VWS V12.08,2013-01-06 06:49:00,
2013-01-06 01:50:00,35.1,22.2,29.35,North,0,0.0,0.0,59,0.00,,,0.00,VWS V12.08,2013-01-06 06:50:00,
2013-01-06 01:51:00,35.1,22.2,29.35,North,0,0.0,0.0,59,0.00,,,0.00,VWS V12.08,2013-01-06 06:51:00,
2013-01-06 01:52:00,35.1,22.2,29.35,North,0,0.0,0.0,59,0.00,,,0.00,VWS V12.08,2013-01-06 06:52:00,
2013-01-06 01:53:00,35.1,22.2,29.35,North,0,0.0,0.0,59,0.00,,,0.00,VWS V12.08,2013-01-06 06:53:00,
2013-01-06 01:54:00,35.1,22.2,29.35,North,0,0.0,0.0,59,0.00,,,0.00,VWS V12.08,2013-01-06 06:54:00,
2013-01-06 01:55:00,34.9,22.0,29.35,North,0,0.0,0.0,59,0.00,,,0.00,VWS V12.08,2013-01-06 06:55:00,
2013-01-06 01:56:00,34.9,24.3,29.35,North,0,0.0,0.0,65,0.00,,,0.00,VWS V12.08,2013-01-06 06:56:00,
2013-01-06 01:57:00,34.9,24.3,29.35,North,0,0.0,0.0,65,0.00,,,0.00,VWS V12.08,2013-01-06 06:57:00,
2013-01-06 01:58:00,34.9,24.3,29.35,North,0,0.0,0.0,65,0.00,,,0.00,VWS V12.08,2013-01-06 06:58:00,
2013-01-06 01:59:00,34.9,24.3,29.35,North,0,0.0,0.0,65,0.00,,,0.00,VWS V12.08,2013-01-06 06:59:00,
2013-01-06 02:00:00,34.9,24.3,29.35,North,0,0.0,0.0,65,0.00,,,0.00,VWS V12.08,2013-01-06 07:00:00,
2013-01-06 02:01:00,34.9,24.3,29.35,North,0,0.0,0.0,65,0.00,,,0.00,VWS V12.08,2013-01-06 07:01:00,
2013-01-06 02:02:00,34.9,24.3,29.35,North,0,0.0,0.0,65,0.00,,,0.00,VWS V12.08,2013-01-06 07:02:00,
2013-01-06 02:03:00,34.9,24.3,29.35,North,0,0.0,0.0,65,0.00,,,0.00,VWS V12.08,2013-01-06 07:03:00,
2013-01-06 02:04:00,34.7,24.1,29.35,North,0,0.0,0.0,65,0.00,,,0.00,VWS V12.08,2013-01-06 07:04:00,
2013-01-06 02:05:00,34.7,24.1,29.35,North,0,0.0,0.0,65,0.00,,,0.00,VWS V12.08,2013-01-06 07:05:00,
2013-01-06 02:06:00,34.7,24.1,29.35,North,0,0.0,0.0,65,0.00,,,0.00,VWS V12.08,2013-01-06 07:06:00,
2013-01-06 02:07:00,34.9,24.3,29.35,North,0,0.0,0.0,65,0.00,,,0.00,VWS V12.08,2013-01-06 07:07:00,
2013-01-06 02:08:00,34.9,24.3,29.35,North,0,0.0,0.0,65,0.00,,,0.00,VWS V12.08,2013-01-06 07:08:00,
2013-01-06 02:09:00,34.9,24.3,29.35,North,0,0.0,0.0,65,0.00,,,0.00,VWS V12.08,2013-01-06 07:09:00,
2013-01-06 02:10:00,34.9,24.3,29.35,North,0,0.0,0.0,65,0.00,,,0.00,VWS V12.08,2013-01-06 07:10:00,
2013-01-06 02:11:00,34.7,24.1,29.35,North,0,0.0,0.0,65,0.00,,,0.00,VWS V12.08,2013-01-06 07:11:00,
2013-01-06 02:12:00,34.7,24.1,29.35,North,0,0.0,0.0,65,0.00,,,0.00,VWS V12.08,2013-01-06 07:12:00,
2013-01-06 02:13:00,34.5,24.0,29.35,North,0,0.0,0.0,65,0.00,,,0.00,VWS V12.08,2013-01-06 07:13:00,
2013-01-06 02:14:00,34.5,24.0,29.35,North,0,0.0,0.0,65,0.00,,,0.00,VWS V12.08,2013-01-06 07:14:00,
2013-01-06 02:15:00,34.5,24.0,29.35,North,0,0.0,0.0,65,0.00,,,0.00,VWS V12.08,2013-01-06 07:15:00,
2013-01-06 02:16:00,34.5,24.0,29.35,North,0,0.0,0.0,65,0.00,,,0.00,VWS V12.08,2013-01-06 07:16:00,
2013-01-06 02:17:00,34.5,24.0,29.35,North,0,0.0,0.0,65,0.00,,,0.00,VWS V12.08,2013-01-06 07:17:00,
2013-01-06 02:18:00,34.5,24.0,29.35,North,0,0.0,0.0,65,0.00,,,0.00,VWS V12.08,2013-01-06 07:18:00,
2013-01-06 02:19:00,34.5,24.0,29.35,North,0,0.0,0.0,65,0.00,,,0.00,VWS V12.08,2013-01-06 07:19:00,
2013-01-06 02:20:00,34.5,24.0,29.35,North,0,0.0,0.0,65,0.00,,,0.00,VWS V12.08,2013-01-06 07:20:00,
2013-01-06 02:21:00,34.5,24.0,29.35,North,0,0.0,0.0,65,0.00,,,0.00,VWS V12.08,2013-01-06 07:21:00,
2013-01-06 02:22:00,34.5,24.0,29.35,North,0,0.0,0.0,65,0.00,,,0.00,VWS V12.08,2013-01-06 07:22:00,
2013-01-06 02:23:00,34.5,24.0,29.35,North,0,0.0,0.0,65,0.00,,,0.00,VWS V12.08,2013-01-06 07:23:00,
2013-01-06 02:24:00,34.5,24.0,29.35,North,0,0.0,0.0,65,0.00,,,0.00,VWS V12.08,2013-01-06 07:24:00,
2013-01-06 02:25:00,34.5,24.0,29.35,North,0,0.0,0.0,65,0.00,,,0.00,VWS V12.08,2013-01-06 07:25:00,
2013-01-06 02:26:00,34.5,24.0,29.35,North,0,0.0,0.0,65,0.00,,,0.00,VWS V12.08,2013-01-06 07:26:00,
2013-01-06 02:27:00,34.5,24.0,29.35,North,0,0.0,0.0,65,0.00,,,0.00,VWS V12.08,2013-01-06 07:27:00,
2013-01-06 02:28:00,34.5,24.0,29.35,North,0,0.0,0.0,65,0.00,,,0.00,VWS V12.08,2013-01-06 07:28:00,
2013-01-06 02:29:00,34.3,23.8,29.35,North,0,0.0,0.0,65,0.00,,,0.00,VWS V12.08,2013-01-06 07:29:00,
2013-01-06 02:30:00,34.3,23.8,29.35,North,0,0.0,0.0,65,0.00,,,0.00,VWS V12.08,2013-01-06 07:30:00,
2013-01-06 02:31:00,34.3,23.8,29.35,North,0,0.0,0.0,65,0.00,,,0.00,VWS V12.08,2013-01-06 07:31:00,
2013-01-06 02:32:00,34.3,23.8,29.35,North,0,0.0,0.0,65,0.00,,,0.00,VWS V12.08,2013-01-06 07:32:00,
2013-01-06 02:33:00,34.3,23.8,29.35,North,0,0.0,0.0,65,0.00,,,0.00,VWS V12.08,2013-01-06 07:33:00,
2013-01-06 02:34:00,34.3,23.8,29.35,North,0,0.0,0.0,65,0.00,,,0.00,VWS V12.08,2013-01-06 07:34:00,
2013-01-06 02:35:00,34.3,23.8,29.35,North,0,0.0,0.0,65,0.00,,,0.00,VWS V12.08,2013-01-06 07:35:00,
2013-01-06 02:36:00,34.3,23.8,29.35,North,0,0.0,0.0,65,0.00,,,0.00,VWS V12.08,2013-01-06 07:36:00,
2013-01-06 02:37:00,34.3,23.8,29.35,North,0,0.0,0.0,65,0.00,,,0.00,VWS V12.08,2013-01-06 07:37:00,
2013-01-06 02:38:00,34.3,23.8,29.35,North,0,0.0,0.0,65,0.00,,,0.00,VWS V12.08,2013-01-06 07:38:00,
2013-01-06 02:39:00,34.3,23.8,29.35,North,0,0.0,0.0,65,0.00,,,0.00,VWS V12.08,2013-01-06 07:39:00,
2013-01-06 02:40:00,34.3,23.8,29.35,North,0,0.0,0.0,65,0.00,,,0.00,VWS V12.08,2013-01-06 07:40:00,
2013-01-06 02:41:00,34.3,23.8,29.35,North,0,0.0,0.0,65,0.00,,,0.00,VWS V12.08,2013-01-06 07:41:00,
2013-01-06 02:42:00,34.3,23.8,29.35,North,0,0.0,0.0,65,0.00,,,0.00,VWS V12.08,2013-01-06 07:42:00,
2013-01-06 02:43:00,34.3,23.8,29.35,North,0,0.0,0.0,65,0.00,,,0.00,VWS V12.08,2013-01-06 07:43:00,
2013-01-06 02:44:00,34.3,23.8,29.35,North,0,0.0,0.0,65,0.00,,,0.00,VWS V12.08,2013-01-06 07:44:00,
2013-01-06 02:45:00,34.3,23.8,29.35,North,0,0.0,0.0,65,0.00,,,0.00,VWS V12.08,2013-01-06 07:45:00,
2013-01-06 02:46:00,39.7,39.7,29.29,North,0,0.0,0.0,100,0.00,,,0.00,VWS V12.08,2013-01-06 07:46:00,
2013-01-06 02:47:00,34.3,23.8,29.35,North,0,0.0,0.0,65,0.00,,,0.00,VWS V12.08,2013-01-06 07:47:00,
2013-01-06 02:48:00,34.2,23.6,29.35,North,0,0.0,0.0,65,0.00,,,0.00,VWS V12.08,2013-01-06 07:48:00,
2013-01-06 02:49:00,34.2,23.6,29.35,North,0,0.0,0.0,65,0.00,,,0.00,VWS V12.08,2013-01-06 07:49:00,
2013-01-06 02:50:00,34.2,23.6,29.35,North,0,0.0,0.0,65,0.00,,,0.00,VWS V12.08,2013-01-06 07:50:00,
2013-01-06 02:51:00,34.2,23.6,29.35,North,0,0.0,0.0,65,0.00,,,0.00,VWS V12.08,2013-01-06 07:51:00,
2013-01-06 02:52:00,34.2,23.6,29.35,North,0,0.0,0.0,65,0.00,,,0.00,VWS V12.08,2013-01-06 07:52:00,
2013-01-06 02:53:00,39.9,39.9,29.29,North,0,0.0,0.0,100,0.00,,,0.00,VWS V12.08,2013-01-06 07:53:00,
2013-01-06 02:54:00,34.0,23.5,29.35,North,0,0.0,0.0,65,0.00,,,0.00,VWS V12.08,2013-01-06 07:54:00,
2013-01-06 02:55:00,34.0,23.5,29.35,North,0,0.0,0.0,65,0.00,,,0.00,VWS V12.08,2013-01-06 07:55:00,
2013-01-06 02:56:00,34.0,23.5,29.35,North,0,0.0,0.0,65,0.00,,,0.00,VWS V12.08,2013-01-06 07:56:00,
2013-01-06 02:57:00,34.0,23.5,29.35,North,0,0.0,0.0,65,0.00,,,0.00,VWS V12.08,2013-01-06 07:57:00,
2013-01-06 02:58:00,39.7,39.7,29.29,North,0,0.0,0.0,100,0.00,,,0.00,VWS V12.08,2013-01-06 07:58:00,
2013-01-06 02:59:00,34.0,23.5,29.35,North,0,0.0,0.0,65,0.00,,,0.00,VWS V12.08,2013-01-06 07:59:00,
2013-01-06 03:00:00,34.0,23.5,29.35,North,0,0.0,0.0,65,0.00,,,0.00,VWS V12.08,2013-01-06 08:00:00,
2013-01-06 03:01:00,34.0,23.5,29.35,North,0,0.0,0.0,65,0.00,,,0.00,VWS V12.08,2013-01-06 08:01:00,
2013-01-06 03:02:00,34.0,23.5,29.35,North,0,0.0,0.0,65,0.00,,,0.00,VWS V12.08,2013-01-06 08:02:00,
2013-01-06 03:03:00,33.8,23.3,29.35,North,0,0.0,0.0,65,0.00,,,0.00,VWS V12.08,2013-01-06 08:03:00,
2013-01-06 03:04:00,33.8,23.3,29.35,North,0,0.0,0.0,65,0.00,,,0.00,VWS V12.08,2013-01-06 08:04:00,
2013-01-06 03:05:00,33.8,23.3,29.35,North,0,0.0,0.0,65,0.00,,,0.00,VWS V12.08,2013-01-06 08:05:00,
2013-01-06 03:06:00,39.7,39.7,29.29,North,0,0.0,0.0,100,0.00,,,0.00,VWS V12.08,2013-01-06 08:06:00,
2013-01-06 03:08:00,33.8,23.3,29.35,North,0,0.0,0.0,65,0.00,,,0.00,VWS V12.08,2013-01-06 08:08:00,
2013-01-06 03:09:00,33.8,23.3,29.35,North,0,0.0,0.0,65,0.00,,,0.00,VWS V12.08,2013-01-06 08:09:00,
2013-01-06 03:10:00,33.8,23.3,29.35,North,0,0.0,0.0,65,0.00,,,0.00,VWS V12.08,2013-01-06 08:10:00,
2013-01-06 03:11:00,39.7,39.7,29.29,North,0,0.0,0.0,100,0.00,,,0.00,VWS V12.08,2013-01-06 08:11:00,
2013-01-06 03:12:00,33.8,23.3,29.35,North,0,0.0,0.0,65,0.00,,,0.00,VWS V12.08,2013-01-06 08:12:00,
2013-01-06 03:13:00,33.8,23.3,29.35,North,0,0.0,0.0,65,0.00,,,0.00,VWS V12.08,2013-01-06 08:13:00,
2013-01-06 03:15:00,33.8,23.3,29.35,North,0,0.0,0.0,65,0.00,,,0.00,VWS V12.08,2013-01-06 08:15:00,
2013-01-06 03:16:00,33.6,23.9,29.35,North,0,0.0,0.0,67,0.00,,,0.00,VWS V12.08,2013-01-06 08:16:00,
2013-01-06 03:17:00,33.6,23.9,29.35,North,0,0.0,0.0,67,0.00,,,0.00,VWS V12.08,2013-01-06 08:17:00,
2013-01-06 03:18:00,33.6,23.9,29.35,North,0,0.0,0.0,67,0.00,,,0.00,VWS V12.08,2013-01-06 08:18:00,
2013-01-06 03:19:00,33.6,23.9,29.38,North,0,0.0,0.0,67,0.00,,,0.00,VWS V12.08,2013-01-06 08:19:00,
2013-01-06 03:20:00,33.6,23.9,29.38,North,0,0.0,0.0,67,0.00,,,0.00,VWS V12.08,2013-01-06 08:20:00,
2013-01-06 03:21:00,33.6,23.9,29.38,North,0,0.0,0.0,67,0.00,,,0.00,VWS V12.08,2013-01-06 08:21:00,
2013-01-06 03:22:00,33.6,23.9,29.38,North,0,0.0,0.0,67,0.00,,,0.00,VWS V12.08,2013-01-06 08:22:00,
2013-01-06 03:23:00,33.6,23.9,29.38,North,0,0.0,0.0,67,0.00,,,0.00,VWS V12.08,2013-01-06 08:23:00,
2013-01-06 03:24:00,39.9,39.7,29.26,North,0,0.0,0.0,99,0.00,,,0.00,VWS V12.08,2013-01-06 08:24:00,
2013-01-06 03:25:00,33.6,23.9,29.38,North,0,0.0,0.0,67,0.00,,,0.00,VWS V12.08,2013-01-06 08:25:00,
2013-01-06 03:26:00,33.6,23.9,29.38,North,0,0.0,0.0,67,0.00,,,0.00,VWS V12.08,2013-01-06 08:26:00,
2013-01-06 03:27:00,33.6,23.9,29.38,North,0,0.0,0.0,67,0.00,,,0.00,VWS V12.08,2013-01-06 08:27:00,
2013-01-06 03:28:00,33.6,23.9,29.38,North,0,0.0,0.0,67,0.00,,,0.00,VWS V12.08,2013-01-06 08:28:00,
2013-01-06 03:29:00,39.9,39.7,29.26,North,0,0.0,0.0,99,0.00,,,0.00,VWS V12.08,2013-01-06 08:29:00,
2013-01-06 03:30:00,33.4,23.7,29.38,North,0,0.0,0.0,67,0.00,,,0.00,VWS V12.08,2013-01-06 08:30:00,
2013-01-06 03:31:00,33.4,23.7,29.38,North,0,0.0,0.0,67,0.00,,,0.00,VWS V12.08,2013-01-06 08:31:00,
2013-01-06 03:32:00,33.4,23.7,29.38,North,0,0.0,0.0,67,0.00,,,0.00,VWS V12.08,2013-01-06 08:32:00,
2013-01-06 03:33:00,33.4,23.7,29.38,North,0,0.0,0.0,67,0.00,,,0.00,VWS V12.08,2013-01-06 08:33:00,
2013-01-06 03:34:00,33.4,23.7,29.38,North,0,0.0,0.0,67,0.00,,,0.00,VWS V12.08,2013-01-06 08:34:00,
2013-01-06 03:35:00,39.9,39.7,29.26,North,0,0.0,0.0,99,0.00,,,0.00,VWS V12.08,2013-01-06 08:35:00,
2013-01-06 03:36:00,33.3,23.5,29.38,North,0,0.0,0.0,67,0.00,,,0.00,VWS V12.08,2013-01-06 08:36:00,
2013-01-06 03:37:00,33.3,23.5,29.38,North,0,0.0,0.0,67,0.00,,,0.00,VWS V12.08,2013-01-06 08:37:00,
2013-01-06 03:38:00,33.3,23.5,29.38,North,0,0.0,0.0,67,0.00,,,0.00,VWS V12.08,2013-01-06 08:38:00,
2013-01-06 03:39:00,33.3,23.5,29.38,North,0,0.0,0.0,67,0.00,,,0.00,VWS V12.08,2013-01-06 08:39:00,
2013-01-06 03:40:00,40.1,39.8,29.26,North,0,0.0,0.0,99,0.00,,,0.00,VWS V12.08,2013-01-06 08:40:00,
2013-01-06 03:42:00,33.1,23.3,29.38,North,0,0.0,0.0,67,0.00,,,0.00,VWS V12.08,2013-01-06 08:42:00,
2013-01-06 03:43:00,33.1,23.3,29.38,North,0,0.0,0.0,67,0.00,,,0.00,VWS V12.08,2013-01-06 08:43:00,
2013-01-06 03:44:00,33.1,23.3,29.38,North,0,0.0,0.0,67,0.00,,,0.00,VWS V12.08,2013-01-06 08:44:00,
2013-01-06 03:45:00,39.9,39.1,29.26,North,0,0.0,0.0,97,0.00,,,0.00,VWS V12.08,2013-01-06 08:45:00,
2013-01-06 03:46:00,33.1,23.3,29.38,North,0,0.0,0.0,67,0.00,,,0.00,VWS V12.08,2013-01-06 08:46:00,
2013-01-06 03:47:00,33.1,23.3,29.38,North,0,0.0,0.0,67,0.00,,,0.00,VWS V12.08,2013-01-06 08:47:00,
2013-01-06 03:48:00,33.1,23.3,29.38,North,0,0.0,0.0,67,0.00,,,0.00,VWS V12.08,2013-01-06 08:48:00,
2013-01-06 03:49:00,33.1,23.3,29.38,North,0,0.0,0.0,67,0.00,,,0.00,VWS V12.08,2013-01-06 08:49:00,
2013-01-06 03:50:00,39.9,39.1,29.26,North,0,0.0,0.0,97,0.00,,,0.00,VWS V12.08,2013-01-06 08:50:00,
2013-01-06 03:51:00,32.9,23.2,29.38,North,0,0.0,0.0,67,0.00,,,0.00,VWS V12.08,2013-01-06 08:51:00,
2013-01-06 03:52:00,32.9,23.2,29.38,North,0,0.0,0.0,67,0.00,,,0.00,VWS V12.08,2013-01-06 08:52:00,
2013-01-06 03:53:00,32.9,23.2,29.38,North,0,0.0,0.0,67,0.00,,,0.00,VWS V12.08,2013-01-06 08:53:00,
2013-01-06 03:54:00,32.9,23.2,29.38,North,0,0.0,0.0,67,0.00,,,0.00,VWS V12.08,2013-01-06 08:54:00,
2013-01-06 03:55:00,32.9,23.2,29.38,North,0,0.0,0.0,67,0.00,,,0.00,VWS V12.08,2013-01-06 08:55:00,
2013-01-06 03:56:00,40.1,39.3,29.26,North,0,0.0,0.0,97,0.00,,,0.00,VWS V12.08,2013-01-06 08:56:00,
2013-01-06 03:57:00,32.9,23.2,29.38,North,0,0.0,0.0,67,0.00,,,0.00,VWS V12.08,2013-01-06 08:57:00,
2013-01-06 03:58:00,32.9,23.2,29.38,North,0,0.0,0.0,67,0.00,,,0.00,VWS V12.08,2013-01-06 08:58:00,
2013-01-06 03:59:00,32.9,23.2,29.38,North,0,0.0,0.0,67,0.00,,,0.00,VWS V12.08,2013-01-06 08:59:00,
2013-01-06 04:00:00,40.1,39.3,29.26,North,0,0.0,0.0,97,0.00,,,0.00,VWS V12.08,2013-01-06 09:00:00,
2013-01-06 04:01:00,32.7,23.0,29.38,North,0,0.0,0.0,67,0.00,,,0.00,VWS V12.08,2013-01-06 09:01:00,
2013-01-06 04:02:00,32.7,23.0,29.38,North,0,0.0,0.0,67,0.00,,,0.00,VWS V12.08,2013-01-06 09:02:00,
2013-01-06 04:03:00,32.7,23.0,29.38,North,0,0.0,0.0,67,0.00,,,0.00,VWS V12.08,2013-01-06 09:03:00,
2013-01-06 04:04:00,32.7,23.0,29.38,North,0,0.0,0.0,67,0.00,,,0.00,VWS V12.08,2013-01-06 09:04:00,
2013-01-06 04:05:00,32.7,23.0,29.38,North,0,0.0,0.0,67,0.00,,,0.00,VWS V12.08,2013-01-06 09:05:00,
2013-01-06 04:06:00,32.7,23.0,29.38,North,0,0.0,0.0,67,0.00,,,0.00,VWS V12.08,2013-01-06 09:06:00,
2013-01-06 04:07:00,40.1,39.3,29.26,North,0,0.0,0.0,97,0.00,,,0.00,VWS V12.08,2013-01-06 09:07:00,
2013-01-06 04:08:00,32.7,23.0,29.38,North,0,0.0,0.0,67,0.00,,,0.00,VWS V12.08,2013-01-06 09:08:00,
2013-01-06 04:09:00,32.7,23.0,29.38,North,0,0.0,0.0,67,0.00,,,0.00,VWS V12.08,2013-01-06 09:09:00,
2013-01-06 04:10:00,32.7,23.0,29.38,North,0,0.0,0.0,67,0.00,,,0.00,VWS V12.08,2013-01-06 09:10:00,
2013-01-06 04:11:00,32.7,23.0,29.38,North,0,0.0,0.0,67,0.00,,,0.00,VWS V12.08,2013-01-06 09:11:00,
2013-01-06 04:12:00,32.7,23.0,29.38,North,0,0.0,0.0,67,0.00,,,0.00,VWS V12.08,2013-01-06 09:12:00,
2013-01-06 04:13:00,32.7,23.0,29.38,North,0,0.0,0.0,67,0.00,,,0.00,VWS V12.08,2013-01-06 09:13:00,
2013-01-06 04:14:00,32.7,23.0,29.38,North,0,0.0,0.0,67,0.00,,,0.00,VWS V12.08,2013-01-06 09:14:00,
2013-01-06 04:15:00,40.1,38.8,29.26,North,0,0.0,0.0,95,0.00,,,0.00,VWS V12.08,2013-01-06 09:15:00,
2013-01-06 04:16:00,32.7,23.0,29.38,North,0,0.0,0.0,67,0.00,,,0.00,VWS V12.08,2013-01-06 09:16:00,
2013-01-06 04:17:00,32.7,23.0,29.38,North,0,0.0,0.0,67,0.00,,,0.00,VWS V12.08,2013-01-06 09:17:00,
2013-01-06 04:18:00,32.7,23.0,29.38,North,0,0.0,0.0,67,0.00,,,0.00,VWS V12.08,2013-01-06 09:18:00,
2013-01-06 04:19:00,32.7,23.0,29.38,North,0,0.0,0.0,67,0.00,,,0.00,VWS V12.08,2013-01-06 09:19:00,
2013-01-06 04:20:00,32.9,23.2,29.38,North,0,0.0,0.0,67,0.00,,,0.00,VWS V12.08,2013-01-06 09:20:00,
2013-01-06 04:21:00,32.9,23.2,29.38,North,0,0.0,0.0,67,0.00,,,0.00,VWS V12.08,2013-01-06 09:21:00,
2013-01-06 04:22:00,32.9,23.2,29.38,North,0,0.0,0.0,67,0.00,,,0.00,VWS V12.08,2013-01-06 09:22:00,
2013-01-06 04:23:00,32.9,23.2,29.38,North,0,0.0,0.0,67,0.00,,,0.00,VWS V12.08,2013-01-06 09:23:00,
2013-01-06 04:24:00,39.9,38.6,29.26,North,0,0.0,0.0,95,0.00,,,0.00,VWS V12.08,2013-01-06 09:24:00,
2013-01-06 04:25:00,32.9,23.2,29.38,North,0,0.0,0.0,67,0.00,,,0.00,VWS V12.08,2013-01-06 09:25:00,
2013-01-06 04:26:00,32.9,23.2,29.38,North,0,0.0,0.0,67,0.00,,,0.00,VWS V12.08,2013-01-06 09:26:00,
2013-01-06 04:27:00,32.9,23.2,29.38,North,0,0.0,0.0,67,0.00,,,0.00,VWS V12.08,2013-01-06 09:27:00,
2013-01-06 04:28:00,32.9,23.2,29.38,North,0,0.0,0.0,67,0.00,,,0.00,VWS V12.08,2013-01-06 09:28:00,
2013-01-06 04:29:00,39.9,38.6,29.26,North,0,0.0,0.0,95,0.00,,,0.00,VWS V12.08,2013-01-06 09:29:00,
2013-01-06 04:30:00,32.9,23.2,29.38,North,0,0.0,0.0,67,0.00,,,0.00,VWS V12.08,2013-01-06 09:30:00,
2013-01-06 04:31:00,32.9,23.2,29.38,North,0,0.0,0.0,67,0.00,,,0.00,VWS V12.08,2013-01-06 09:31:00,
2013-01-06 04:32:00,32.9,23.2,29.38,North,0,0.0,0.0,67,0.00,,,0.00,VWS V12.08,2013-01-06 09:32:00,
2013-01-06 04:33:00,32.9,23.2,29.38,North,0,0.0,0.0,67,0.00,,,0.00,VWS V12.08,2013-01-06 09:33:00,
2013-01-06 04:34:00,39.9,38.6,29.26,North,0,0.0,0.0,95,0.00,,,0.00,VWS V12.08,2013-01-06 09:34:00,
2013-01-06 04:35:00,32.9,23.2,29.38,North,0,0.0,0.0,67,0.00,,,0.00,VWS V12.08,2013-01-06 09:35:00,
2013-01-06 04:36:00,32.9,23.2,29.38,North,0,0.0,0.0,67,0.00,,,0.00,VWS V12.08,2013-01-06 09:36:00,
2013-01-06 04:37:00,32.9,23.2,29.38,North,0,0.0,0.0,67,0.00,,,0.00,VWS V12.08,2013-01-06 09:37:00,
2013-01-06 04:38:00,32.7,23.0,29.38,North,0,0.0,0.0,67,0.00,,,0.00,VWS V12.08,2013-01-06 09:38:00,
2013-01-06 04:39:00,39.9,39.1,29.26,North,0,0.0,0.0,97,0.00,,,0.00,VWS V12.08,2013-01-06 09:39:00,
2013-01-06 04:40:00,32.7,23.0,29.38,North,0,0.0,0.0,67,0.00,,,0.00,VWS V12.08,2013-01-06 09:40:00,
2013-01-06 04:41:00,32.7,23.0,29.38,North,0,0.0,0.0,67,0.00,,,0.00,VWS V12.08,2013-01-06 09:41:00,
2013-01-06 04:42:00,32.7,23.0,29.38,North,0,0.0,0.0,67,0.00,,,0.00,VWS V12.08,2013-01-06 09:42:00,
2013-01-06 04:43:00,32.7,23.0,29.38,North,0,0.0,0.0,67,0.00,,,0.00,VWS V12.08,2013-01-06 09:43:00,
2013-01-06 04:44:00,32.7,23.0,29.38,North,0,0.0,0.0,67,0.00,,,0.00,VWS V12.08,2013-01-06 09:44:00,
2013-01-06 04:45:00,32.7,23.0,29.38,North,0,0.0,0.0,67,0.00,,,0.00,VWS V12.08,2013-01-06 09:45:00,
2013-01-06 04:46:00,32.7,23.0,29.38,North,0,0.0,0.0,67,0.00,,,0.00,VWS V12.08,2013-01-06 09:46:00,
2013-01-06 04:47:00,32.7,23.0,29.38,North,0,0.0,0.0,67,0.00,,,0.00,VWS V12.08,2013-01-06 09:47:00,
2013-01-06 04:48:00,32.7,23.0,29.38,North,0,0.0,0.0,67,0.00,,,0.00,VWS V12.08,2013-01-06 09:48:00,
2013-01-06 04:49:00,32.5,22.8,29.38,North,0,0.0,0.0,67,0.00,,,0.00,VWS V12.08,2013-01-06 09:49:00,
2013-01-06 04:50:00,39.9,39.1,29.26,North,0,0.0,0.0,97,0.00,,,0.00,VWS V12.08,2013-01-06 09:50:00,
2013-01-06 04:51:00,32.5,22.8,29.38,North,0,0.0,0.0,67,0.00,,,0.00,VWS V12.08,2013-01-06 09:51:00,
2013-01-06 04:52:00,32.5,22.8,29.38,North,0,0.0,0.0,67,0.00,,,0.00,VWS V12.08,2013-01-06 09:52:00,
2013-01-06 04:53:00,32.5,22.8,29.38,North,0,0.0,0.0,67,0.00,,,0.00,VWS V12.08,2013-01-06 09:53:00,
2013-01-06 04:54:00,32.5,22.8,29.38,North,0,0.0,0.0,67,0.00,,,0.00,VWS V12.08,2013-01-06 09:54:00,
2013-01-06 04:55:00,39.9,39.1,29.26,North,0,0.0,0.0,97,0.00,,,0.00,VWS V12.08,2013-01-06 09:55:00,
2013-01-06 04:56:00,32.5,22.8,29.38,North,0,0.0,0.0,67,0.00,,,0.00,VWS V12.08,2013-01-06 09:56:00,
2013-01-06 04:58:00,32.5,22.8,29.38,North,0,0.0,0.0,67,0.00,,,0.00,VWS V12.08,2013-01-06 09:58:00,
2013-01-06 04:59:00,32.5,22.8,29.38,North,0,0.0,0.0,67,0.00,,,0.00,VWS V12.08,2013-01-06 09:59:00,
2013-01-06 05:00:00,39.9,39.1,29.26,North,0,0.0,0.0,97,0.00,,,0.00,VWS V12.08,2013-01-06 10:00:00,
2013-01-06 05:01:00,32.5,22.8,29.38,North,0,0.0,0.0,67,0.00,,,0.00,VWS V12.08,2013-01-06 10:01:00,
2013-01-06 05:02:00,32.5,22.8,29.38,North,0,0.0,0.0,67,0.00,,,0.00,VWS V12.08,2013-01-06 10:02:00,
2013-01-06 05:03:00,32.5,22.8,29.38,North,0,0.0,0.0,67,0.00,,,0.00,VWS V12.08,2013-01-06 10:03:00,
2013-01-06 05:04:00,32.5,22.8,29.38,North,0,0.0,0.0,67,0.00,,,0.00,VWS V12.08,2013-01-06 10:04:00,
2013-01-06 05:05:00,39.9,39.1,29.26,North,0,0.0,0.0,97,0.00,,,0.00,VWS V12.08,2013-01-06 10:05:00,
2013-01-06 05:06:00,32.5,22.8,29.38,North,0,0.0,0.0,67,0.00,,,0.00,VWS V12.08,2013-01-06 10:06:00,
2013-01-06 05:07:00,32.5,22.8,29.38,North,0,0.0,0.0,67,0.00,,,0.00,VWS V12.08,2013-01-06 10:07:00,
2013-01-06 05:08:00,32.4,22.6,29.38,North,0,0.0,0.0,67,0.00,,,0.00,VWS V12.08,2013-01-06 10:08:00,
2013-01-06 05:09:00,32.4,22.6,29.38,North,0,0.0,0.0,67,0.00,,,0.00,VWS V12.08,2013-01-06 10:09:00,
2013-01-06 05:10:00,40.1,39.3,29.26,North,0,0.0,0.0,97,0.00,,,0.00,VWS V12.08,2013-01-06 10:10:00,
2013-01-06 05:11:00,32.4,22.6,29.38,North,0,0.0,0.0,67,0.00,,,0.00,VWS V12.08,2013-01-06 10:11:00,
2013-01-06 05:12:00,32.4,22.6,29.38,North,0,0.0,0.0,67,0.00,,,0.00,VWS V12.08,2013-01-06 10:12:00,
2013-01-06 05:13:00,32.4,22.6,29.38,North,0,0.0,0.0,67,0.00,,,0.00,VWS V12.08,2013-01-06 10:13:00,
2013-01-06 05:14:00,32.4,22.6,29.38,North,0,0.0,0.0,67,0.00,,,0.00,VWS V12.08,2013-01-06 10:14:00,
2013-01-06 05:15:00,32.4,22.6,29.38,North,0,0.0,0.0,67,0.00,,,0.00,VWS V12.08,2013-01-06 10:15:00,
2013-01-06 05:16:00,40.1,39.3,29.26,North,0,0.0,0.0,97,0.00,,,0.00,VWS V12.08,2013-01-06 10:16:00,
2013-01-06 05:17:00,32.4,22.6,29.38,North,0,0.0,0.0,67,0.00,,,0.00,VWS V12.08,2013-01-06 10:17:00,
2013-01-06 05:18:00,32.4,22.6,29.38,North,0,0.0,0.0,67,0.00,,,0.00,VWS V12.08,2013-01-06 10:18:00,
2013-01-06 05:19:00,32.4,22.6,29.38,North,0,0.0,0.0,67,0.00,,,0.00,VWS V12.08,2013-01-06 10:19:00,
2013-01-06 05:20:00,32.4,22.6,29.38,North,0,0.0,0.0,67,0.00,,,0.00,VWS V12.08,2013-01-06 10:20:00,
2013-01-06 05:21:00,40.1,39.3,29.23,North,0,0.0,0.0,97,0.00,,,0.00,VWS V12.08,2013-01-06 10:21:00,
2013-01-06 05:22:00,32.2,22.5,29.38,North,0,0.0,0.0,67,0.00,,,0.00,VWS V12.08,2013-01-06 10:22:00,
2013-01-06 05:23:00,32.0,22.3,29.38,North,0,0.0,0.0,67,0.00,,,0.00,VWS V12.08,2013-01-06 10:23:00,
2013-01-06 05:24:00,32.0,22.3,29.38,North,0,0.0,0.0,67,0.00,,,0.00,VWS V12.08,2013-01-06 10:24:00,
2013-01-06 05:25:00,32.0,22.3,29.38,North,0,0.0,0.0,67,0.00,,,0.00,VWS V12.08,2013-01-06 10:25:00,
2013-01-06 05:26:00,40.1,39.8,29.23,North,0,0.0,0.0,99,0.00,,,0.00,VWS V12.08,2013-01-06 10:26:00,
2013-01-06 05:27:00,32.0,22.3,29.38,North,0,0.0,0.0,67,0.00,,,0.00,VWS V12.08,2013-01-06 10:27:00,
2013-01-06 05:28:00,32.0,22.3,29.38,North,0,0.0,0.0,67,0.00,,,0.00,VWS V12.08,2013-01-06 10:28:00,
2013-01-06 05:29:00,31.8,22.1,29.38,North,0,0.0,0.0,67,0.00,,,0.00,VWS V12.08,2013-01-06 10:29:00,
2013-01-06 05:30:00,31.8,22.1,29.38,North,0,0.0,0.0,67,0.00,,,0.00,VWS V12.08,2013-01-06 10:30:00,
2013-01-06 05:31:00,31.8,22.1,29.38,North,0,0.0,0.0,67,0.00,,,0.00,VWS V12.08,2013-01-06 10:31:00,
2013-01-06 05:32:00,31.8,22.1,29.38,North,0,0.0,0.0,67,0.00,,,0.00,VWS V12.08,2013-01-06 10:32:00,
2013-01-06 05:33:00,31.8,22.1,29.38,North,0,0.0,0.0,67,0.00,,,0.00,VWS V12.08,2013-01-06 10:33:00,
2013-01-06 05:34:00,31.8,22.1,29.38,North,0,0.0,0.0,67,0.00,,,0.00,VWS V12.08,2013-01-06 10:34:00,
2013-01-06 05:35:00,39.7,39.5,29.26,North,0,0.0,0.0,99,0.00,,,0.00,VWS V12.08,2013-01-06 10:35:00,
2013-01-06 05:36:00,31.6,22.0,29.38,North,0,0.0,0.0,67,0.00,,,0.00,VWS V12.08,2013-01-06 10:36:00,
2013-01-06 05:37:00,31.6,22.0,29.38,North,0,0.0,0.0,67,0.00,,,0.00,VWS V12.08,2013-01-06 10:37:00,
2013-01-06 05:38:00,31.5,21.8,29.38,North,0,0.0,0.0,67,0.00,,,0.00,VWS V12.08,2013-01-06 10:38:00,
2013-01-06 05:39:00,31.5,21.8,29.38,North,0,0.0,0.0,67,0.00,,,0.00,VWS V12.08,2013-01-06 10:39:00,
2013-01-06 05:40:00,39.7,39.5,29.26,North,0,0.0,0.0,99,0.00,,,0.00,VWS V12.08,2013-01-06 10:40:00,
2013-01-06 05:41:00,31.3,21.6,29.38,North,0,0.0,0.0,67,0.00,,,0.00,VWS V12.08,2013-01-06 10:41:00,
2013-01-06 05:42:00,31.3,21.6,29.38,North,0,0.0,0.0,67,0.00,,,0.00,VWS V12.08,2013-01-06 10:42:00,
2013-01-06 05:43:00,31.3,21.6,29.38,North,0,0.0,0.0,67,0.00,,,0.00,VWS V12.08,2013-01-06 10:43:00,
2013-01-06 05:44:00,31.3,21.6,29.38,North,0,0.0,0.0,67,0.00,,,0.00,VWS V12.08,2013-01-06 10:44:00,
2013-01-06 05:45:00,39.7,39.5,29.26,North,0,0.0,0.0,99,0.00,,,0.00,VWS V12.08,2013-01-06 10:45:00,
2013-01-06 05:46:00,31.3,21.6,29.38,North,0,0.0,0.0,67,0.00,,,0.00,VWS V12.08,2013-01-06 10:46:00,
2013-01-06 05:47:00,31.3,21.6,29.38,North,0,0.0,0.0,67,0.00,,,0.00,VWS V12.08,2013-01-06 10:47:00,
2013-01-06 05:48:00,31.3,21.6,29.38,North,0,0.0,0.0,67,0.00,,,0.00,VWS V12.08,2013-01-06 10:48:00,
2013-01-06 05:49:00,31.3,21.6,29.38,North,0,0.0,0.0,67,0.00,,,0.00,VWS V12.08,2013-01-06 10:49:00,
2013-01-06 05:50:00,39.7,39.7,29.23,North,0,0.0,0.0,100,0.00,,,0.00,VWS V12.08,2013-01-06 10:50:00,
2013-01-06 05:51:00,31.3,21.6,29.38,North,0,0.0,0.0,67,0.00,,,0.00,VWS V12.08,2013-01-06 10:51:00,
2013-01-06 05:52:00,31.3,21.6,29.38,North,0,0.0,0.0,67,0.00,,,0.00,VWS V12.08,2013-01-06 10:52:00,
2013-01-06 05:53:00,31.3,21.6,29.38,North,0,0.0,0.0,67,0.00,,,0.00,VWS V12.08,2013-01-06 10:53:00,
2013-01-06 05:54:00,31.3,21.6,29.38,North,0,0.0,0.0,67,0.00,,,0.00,VWS V12.08,2013-01-06 10:54:00,
2013-01-06 05:55:00,31.3,21.6,29.38,North,0,0.0,0.0,67,0.00,,,0.00,VWS V12.08,2013-01-06 10:55:00,
2013-01-06 05:56:00,31.3,21.6,29.38,North,0,0.0,0.0,67,0.00,,,0.00,VWS V12.08,2013-01-06 10:56:00,
2013-01-06 05:57:00,39.7,39.7,29.23,North,0,0.0,0.0,100,0.00,,,0.00,VWS V12.08,2013-01-06 10:57:00,
2013-01-06 05:58:00,31.3,21.6,29.38,North,0,0.0,0.0,67,0.00,,,0.00,VWS V12.08,2013-01-06 10:58:00,
2013-01-06 05:59:00,31.5,21.8,29.38,North,0,0.0,0.0,67,0.00,,,0.00,VWS V12.08,2013-01-06 10:59:00,
2013-01-06 06:00:00,31.5,21.8,29.38,North,0,0.0,0.0,67,0.00,,,0.00,VWS V12.08,2013-01-06 11:00:00,
2013-01-06 06:01:00,31.5,21.8,29.38,North,0,0.0,0.0,67,0.00,,,0.00,VWS V12.08,2013-01-06 11:01:00,
2013-01-06 06:02:00,31.5,21.8,29.38,North,0,0.0,0.0,67,0.00,,,0.00,VWS V12.08,2013-01-06 11:02:00,
2013-01-06 06:03:00,39.7,39.7,29.23,North,0,0.0,0.0,100,0.00,,,0.00,VWS V12.08,2013-01-06 11:03:00,
2013-01-06 06:04:00,31.5,21.8,29.41,North,0,0.0,0.0,67,0.00,,,0.00,VWS V12.08,2013-01-06 11:04:00,
2013-01-06 06:05:00,31.5,21.8,29.41,North,0,0.0,0.0,67,0.00,,,0.00,VWS V12.08,2013-01-06 11:05:00,
2013-01-06 06:06:00,31.5,21.8,29.41,North,0,0.0,0.0,67,0.00,,,0.00,VWS V12.08,2013-01-06 11:06:00,
2013-01-06 06:07:00,31.5,21.8,29.41,North,0,0.0,0.0,67,0.00,,,0.00,VWS V12.08,2013-01-06 11:07:00,
2013-01-06 06:09:00,39.7,39.7,29.26,North,0,0.0,0.0,100,0.00,,,0.00,VWS V12.08,2013-01-06 11:09:00,
2013-01-06 06:10:00,31.5,21.8,29.41,North,0,0.0,0.0,67,0.00,,,0.00,VWS V12.08,2013-01-06 11:10:00,
2013-01-06 06:11:00,31.5,21.8,29.41,North,0,0.0,0.0,67,0.00,,,0.00,VWS V12.08,2013-01-06 11:11:00,
2013-01-06 06:12:00,31.3,21.6,29.41,North,0,0.0,0.0,67,0.00,,,0.00,VWS V12.08,2013-01-06 11:12:00,
2013-01-06 06:13:00,31.1,21.4,29.41,North,0,0.0,0.0,67,0.00,,,0.00,VWS V12.08,2013-01-06 11:13:00,
2013-01-06 06:14:00,39.9,39.9,29.26,North,0,0.0,0.0,100,0.00,,,0.00,VWS V12.08,2013-01-06 11:14:00,
2013-01-06 06:15:00,30.9,21.3,29.41,North,0,0.0,0.0,67,0.00,,,0.00,VWS V12.08,2013-01-06 11:15:00,
2013-01-06 06:16:00,30.9,21.3,29.41,North,0,0.0,0.0,67,0.00,,,0.00,VWS V12.08,2013-01-06 11:16:00,
2013-01-06 06:17:00,30.9,21.3,29.41,North,0,0.0,0.0,67,0.00,,,0.00,VWS V12.08,2013-01-06 11:17:00,
2013-01-06 06:18:00,30.9,21.3,29.41,North,0,0.0,0.0,67,0.00,,,0.00,VWS V12.08,2013-01-06 11:18:00,
2013-01-06 06:19:00,40.1,40.1,29.26,North,0,0.0,0.0,100,0.00,,,0.00,VWS V12.08,2013-01-06 11:19:00,
2013-01-06 06:20:00,30.6,20.9,29.41,North,0,0.0,0.0,67,0.00,,,0.00,VWS V12.08,2013-01-06 11:20:00,
2013-01-06 06:21:00,30.6,20.9,29.41,North,0,0.0,0.0,67,0.00,,,0.00,VWS V12.08,2013-01-06 11:21:00,
2013-01-06 06:22:00,30.4,21.4,29.41,North,0,0.0,0.0,69,0.00,,,0.00,VWS V12.08,2013-01-06 11:22:00,
2013-01-06 06:23:00,30.4,21.4,29.41,North,0,0.0,0.0,69,0.00,,,0.00,VWS V12.08,2013-01-06 11:23:00,
2013-01-06 06:24:00,40.1,40.1,29.26,North,0,0.0,0.0,100,0.00,,,0.00,VWS V12.08,2013-01-06 11:24:00,
2013-01-06 06:25:00,30.4,21.4,29.41,North,0,0.0,0.0,69,0.00,,,0.00,VWS V12.08,2013-01-06 11:25:00,
2013-01-06 06:26:00,30.2,21.9,29.41,North,0,0.0,0.0,71,0.00,,,0.00,VWS V12.08,2013-01-06 11:26:00,
2013-01-06 06:27:00,30.2,22.6,29.41,North,0,0.0,0.0,73,0.00,,,0.00,VWS V12.08,2013-01-06 11:27:00,
2013-01-06 06:28:00,30.2,22.6,29.41,North,0,0.0,0.0,73,0.00,,,0.00,VWS V12.08,2013-01-06 11:28:00,
2013-01-06 06:29:00,40.1,40.1,29.26,North,0,0.0,0.0,100,0.00,,,0.00,VWS V12.08,2013-01-06 11:29:00,
2013-01-06 06:30:00,30.0,22.4,29.41,North,0,0.0,0.0,73,0.00,,,0.00,VWS V12.08,2013-01-06 11:30:00,
2013-01-06 06:31:00,30.0,22.4,29.41,North,0,0.0,0.0,73,0.00,,,0.00,VWS V12.08,2013-01-06 11:31:00,
2013-01-06 06:32:00,30.0,23.1,29.41,North,0,0.0,0.0,75,0.00,,,0.00,VWS V12.08,2013-01-06 11:32:00,
2013-01-06 06:33:00,30.0,23.1,29.41,North,0,0.0,0.0,75,0.00,,,0.00,VWS V12.08,2013-01-06 11:33:00,
2013-01-06 06:34:00,40.1,40.1,29.26,North,0,0.0,0.0,100,0.00,,,0.00,VWS V12.08,2013-01-06 11:34:00,
2013-01-06 06:35:00,30.0,23.1,29.41,North,0,0.0,0.0,75,0.00,,,0.00,VWS V12.08,2013-01-06 11:35:00,
2013-01-06 06:36:00,29.8,23.5,29.41,North,0,0.0,0.0,77,0.00,,,0.00,VWS V12.08,2013-01-06 11:36:00,
2013-01-06 06:37:00,29.8,23.5,29.41,North,0,0.0,0.0,77,0.00,,,0.00,VWS V12.08,2013-01-06 11:37:00,
2013-01-06 06:38:00,29.8,23.5,29.41,North,0,0.0,0.0,77,0.00,,,0.00,VWS V12.08,2013-01-06 11:38:00,
2013-01-06 06:39:00,40.1,40.1,29.26,North,0,0.0,0.0,100,0.00,,,0.00,VWS V12.08,2013-01-06 11:39:00,
2013-01-06 06:40:00,29.8,24.1,29.41,North,0,0.0,0.0,79,0.00,,,0.00,VWS V12.08,2013-01-06 11:40:00,
2013-01-06 06:41:00,29.8,24.1,29.41,North,0,0.0,0.0,79,0.00,,,0.00,VWS V12.08,2013-01-06 11:41:00,
2013-01-06 06:42:00,29.8,24.1,29.41,North,0,0.0,0.0,79,0.00,,,0.00,VWS V12.08,2013-01-06 11:42:00,
2013-01-06 06:43:00,29.7,24.6,29.41,North,0,0.0,0.0,81,0.00,,,0.00,VWS V12.08,2013-01-06 11:43:00,
2013-01-06 06:44:00,39.9,39.9,29.26,North,0,0.0,0.0,100,0.00,,,0.00,VWS V12.08,2013-01-06 11:44:00,
2013-01-06 06:45:00,29.7,24.6,29.41,North,0,0.0,0.0,81,0.00,,,0.00,VWS V12.08,2013-01-06 11:45:00,
2013-01-06 06:46:00,29.7,25.1,29.41,North,0,0.0,0.0,83,0.00,,,0.00,VWS V12.08,2013-01-06 11:46:00,
2013-01-06 06:47:00,29.7,25.1,29.41,North,0,0.0,0.0,83,0.00,,,0.00,VWS V12.08,2013-01-06 11:47:00,
2013-01-06 06:48:00,29.7,25.1,29.41,North,0,0.0,0.0,83,0.00,,,0.00,VWS V12.08,2013-01-06 11:48:00,
2013-01-06 06:49:00,39.9,39.9,29.26,North,0,0.0,0.0,100,0.00,,,0.00,VWS V12.08,2013-01-06 11:49:00,
2013-01-06 06:50:00,29.7,25.7,29.41,North,0,0.0,0.0,85,0.00,,,0.00,VWS V12.08,2013-01-06 11:50:00,
2013-01-06 06:51:00,29.7,25.7,29.41,North,0,0.0,0.0,85,0.00,,,0.00,VWS V12.08,2013-01-06 11:51:00,
2013-01-06 06:52:00,29.7,25.7,29.41,North,0,0.0,0.0,85,0.00,,,0.00,VWS V12.08,2013-01-06 11:52:00,
2013-01-06 06:53:00,29.7,25.7,29.41,North,0,0.0,0.0,85,0.00,,,0.00,VWS V12.08,2013-01-06 11:53:00,
2013-01-06 06:54:00,39.9,39.9,29.26,North,0,0.0,0.0,100,0.00,,,0.00,VWS V12.08,2013-01-06 11:54:00,
2013-01-06 06:55:00,29.8,25.9,29.41,North,0,0.0,0.0,85,0.00,,,0.00,VWS V12.08,2013-01-06 11:55:00,
2013-01-06 06:56:00,29.8,25.9,29.41,North,0,0.0,0.0,85,0.00,,,0.00,VWS V12.08,2013-01-06 11:56:00,
2013-01-06 06:57:00,29.8,25.9,29.41,North,0,0.0,0.0,85,0.00,,,0.00,VWS V12.08,2013-01-06 11:57:00,
2013-01-06 06:58:00,29.8,25.9,29.41,North,0,0.0,0.0,85,0.00,,,0.00,VWS V12.08,2013-01-06 11:58:00,
2013-01-06 06:59:00,29.8,25.9,29.41,North,0,0.0,0.0,85,0.00,,,0.00,VWS V12.08,2013-01-06 11:59:00,
2013-01-06 07:00:00,29.8,26.5,29.41,North,0,0.0,0.0,87,0.00,,,0.00,VWS V12.08,2013-01-06 12:00:00,
2013-01-06 07:01:00,29.8,26.5,29.41,North,0,0.0,0.0,87,0.00,,,0.00,VWS V12.08,2013-01-06 12:01:00,
2013-01-06 07:02:00,29.8,26.5,29.41,North,0,0.0,0.0,87,0.00,,,0.00,VWS V12.08,2013-01-06 12:02:00,
2013-01-06 07:03:00,29.8,26.5,29.41,North,0,0.0,0.0,87,0.00,,,0.00,VWS V12.08,2013-01-06 12:03:00,
2013-01-06 07:04:00,29.8,26.5,29.41,North,0,0.0,0.0,87,0.00,,,0.00,VWS V12.08,2013-01-06 12:04:00,
2013-01-06 07:05:00,39.9,39.9,29.26,North,0,0.0,0.0,100,0.00,,,0.00,VWS V12.08,2013-01-06 12:05:00,
2013-01-06 07:06:00,29.8,26.5,29.41,North,0,0.0,0.0,87,0.00,,,0.00,VWS V12.08,2013-01-06 12:06:00,
2013-01-06 07:09:00,29.8,26.5,29.41,North,0,0.0,0.0,87,0.00,,,0.00,VWS V12.08,2013-01-06 12:09:00,
2013-01-06 07:10:00,39.9,39.9,29.26,North,0,0.0,0.0,100,0.00,,,0.00,VWS V12.08,2013-01-06 12:10:00,
2013-01-06 07:11:00,29.8,26.5,29.41,North,0,0.0,0.0,87,0.00,,,0.00,VWS V12.08,2013-01-06 12:11:00,
2013-01-06 07:12:00,29.8,26.5,29.41,North,0,0.0,0.0,87,0.00,,,0.00,VWS V12.08,2013-01-06 12:12:00,
2013-01-06 07:13:00,29.8,26.5,29.41,North,0,0.0,0.0,87,0.00,,,0.00,VWS V12.08,2013-01-06 12:13:00,
2013-01-06 07:14:00,29.8,26.5,29.41,North,0,0.0,0.0,87,0.00,,,0.00,VWS V12.08,2013-01-06 12:14:00,
2013-01-06 07:15:00,29.8,25.9,29.41,North,0,0.0,0.0,85,0.00,,,0.00,VWS V12.08,2013-01-06 12:15:00,
2013-01-06 07:16:00,29.8,25.9,29.41,North,0,0.0,0.0,85,0.00,,,0.00,VWS V12.08,2013-01-06 12:16:00,
2013-01-06 07:17:00,29.8,25.9,29.41,North,0,0.0,0.0,85,0.00,,,0.00,VWS V12.08,2013-01-06 12:17:00,
2013-01-06 07:18:00,40.1,40.1,29.26,North,0,0.0,0.0,100,0.00,,,0.00,VWS V12.08,2013-01-06 12:18:00,
2013-01-06 07:19:00,29.7,25.7,29.41,North,0,0.0,0.0,85,0.00,,,0.00,VWS V12.08,2013-01-06 12:19:00,
2013-01-06 07:20:00,29.8,25.9,29.41,North,0,0.0,0.0,85,0.00,,,0.00,VWS V12.08,2013-01-06 12:20:00,
2013-01-06 07:21:00,29.7,25.7,29.41,North,0,0.0,0.0,85,0.00,,,0.00,VWS V12.08,2013-01-06 12:21:00,
2013-01-06 07:22:00,29.7,25.7,29.41,North,0,0.0,0.0,85,0.00,,,0.00,VWS V12.08,2013-01-06 12:22:00,
2013-01-06 07:23:00,40.1,40.1,29.26,North,0,0.0,0.0,100,0.00,,,0.00,VWS V12.08,2013-01-06 12:23:00,
2013-01-06 07:24:00,29.7,25.7,29.41,North,0,0.0,0.0,85,0.00,,,0.00,VWS V12.08,2013-01-06 12:24:00,
2013-01-06 07:25:00,29.7,25.7,29.41,North,0,0.0,0.0,85,0.00,,,0.00,VWS V12.08,2013-01-06 12:25:00,
2013-01-06 07:26:00,29.7,25.7,29.41,North,0,0.0,0.0,85,0.00,,,0.00,VWS V12.08,2013-01-06 12:26:00,
2013-01-06 07:27:00,29.7,25.7,29.41,North,0,0.0,0.0,85,0.00,,,0.00,VWS V12.08,2013-01-06 12:27:00,
2013-01-06 07:28:00,29.7,25.7,29.41,North,0,0.0,0.0,85,0.00,,,0.00,VWS V12.08,2013-01-06 12:28:00,
2013-01-06 07:29:00,29.7,25.7,29.41,North,0,0.0,0.0,85,0.00,,,0.00,VWS V12.08,2013-01-06 12:29:00,
2013-01-06 07:30:00,29.7,25.7,29.41,North,0,0.0,0.0,85,0.00,,,0.00,VWS V12.08,2013-01-06 12:30:00,
2013-01-06 07:31:00,29.7,25.7,29.41,North,0,0.0,0.0,85,0.00,,,0.00,VWS V12.08,2013-01-06 12:31:00,
2013-01-06 07:32:00,29.7,25.7,29.41,North,0,0.0,0.0,85,0.00,,,0.00,VWS V12.08,2013-01-06 12:32:00,
2013-01-06 07:33:00,29.7,25.7,29.41,North,0,0.0,0.0,85,0.00,,,0.00,VWS V12.08,2013-01-06 12:33:00,
2013-01-06 07:34:00,29.7,25.7,29.41,North,0,0.0,0.0,85,0.00,,,0.00,VWS V12.08,2013-01-06 12:34:00,
2013-01-06 07:35:00,29.7,25.7,29.41,North,0,0.0,0.0,85,0.00,,,0.00,VWS V12.08,2013-01-06 12:35:00,
2013-01-06 07:36:00,29.7,25.7,29.41,North,0,0.0,0.0,85,0.00,,,0.00,VWS V12.08,2013-01-06 12:36:00,
2013-01-06 07:37:00,39.9,39.9,29.26,North,0,0.0,0.0,100,0.00,,,0.00,VWS V12.08,2013-01-06 12:37:00,
2013-01-06 07:38:00,29.7,25.7,29.41,North,0,0.0,0.0,85,0.00,,,0.00,VWS V12.08,2013-01-06 12:38:00,
2013-01-06 07:39:00,29.7,25.7,29.41,North,0,0.0,0.0,85,0.00,,,0.00,VWS V12.08,2013-01-06 12:39:00,
2013-01-06 07:40:00,29.7,25.7,29.41,North,0,0.0,0.0,85,0.00,,,0.00,VWS V12.08,2013-01-06 12:40:00,
2013-01-06 07:41:00,29.7,25.7,29.41,North,0,0.0,0.0,85,0.00,,,0.00,VWS V12.08,2013-01-06 12:41:00,
2013-01-06 07:42:00,29.7,25.7,29.41,North,0,0.0,0.0,85,0.00,,,0.00,VWS V12.08,2013-01-06 12:42:00,
2013-01-06 07:43:00,29.7,25.7,29.41,North,0,0.0,0.0,85,0.00,,,0.00,VWS V12.08,2013-01-06 12:43:00,
2013-01-06 07:44:00,29.7,25.1,29.41,North,0,0.0,0.0,83,0.00,,,0.00,VWS V12.08,2013-01-06 12:44:00,
2013-01-06 07:45:00,29.7,25.1,29.41,North,0,0.0,0.0,83,0.00,,,0.00,VWS V12.08,2013-01-06 12:45:00,
2013-01-06 07:46:00,39.9,39.9,29.26,North,0,0.0,0.0,100,0.00,,,0.00,VWS V12.08,2013-01-06 12:46:00,
2013-01-06 07:47:00,29.7,25.1,29.41,North,0,0.0,0.0,83,0.00,,,0.00,VWS V12.08,2013-01-06 12:47:00,
2013-01-06 07:48:00,29.7,25.1,29.41,North,0,0.0,0.0,83,0.00,,,0.00,VWS V12.08,2013-01-06 12:48:00,
2013-01-06 07:49:00,29.7,25.1,29.41,North,0,0.0,0.0,83,0.00,,,0.00,VWS V12.08,2013-01-06 12:49:00,
2013-01-06 07:50:00,29.7,25.1,29.41,North,0,0.0,0.0,83,0.00,,,0.00,VWS V12.08,2013-01-06 12:50:00,
2013-01-06 07:51:00,29.7,25.1,29.41,North,0,0.0,0.0,83,0.00,,,0.00,VWS V12.08,2013-01-06 12:51:00,
2013-01-06 07:52:00,29.7,25.1,29.41,North,0,0.0,0.0,83,0.00,,,0.00,VWS V12.08,2013-01-06 12:52:00,
2013-01-06 07:53:00,39.9,39.9,29.26,North,0,0.0,0.0,100,0.00,,,0.00,VWS V12.08,2013-01-06 12:53:00,
2013-01-06 07:54:00,29.7,25.1,29.41,North,0,0.0,0.0,83,0.00,,,0.00,VWS V12.08,2013-01-06 12:54:00,
2013-01-06 07:55:00,29.7,25.1,29.41,North,0,0.0,0.0,83,0.00,,,0.00,VWS V12.08,2013-01-06 12:55:00,
2013-01-06 07:56:00,29.7,25.1,29.41,North,0,0.0,0.0,83,0.00,,,0.00,VWS V12.08,2013-01-06 12:56:00,
2013-01-06 07:57:00,29.7,25.1,29.41,North,0,0.0,0.0,83,0.00,,,0.00,VWS V12.08,2013-01-06 12:57:00,
2013-01-06 07:58:00,29.7,25.1,29.41,North,0,0.0,0.0,83,0.00,,,0.00,VWS V12.08,2013-01-06 12:58:00,
2013-01-06 07:59:00,29.7,25.1,29.41,North,0,0.0,0.0,83,0.00,,,0.00,VWS V12.08,2013-01-06 12:59:00,
2013-01-06 08:00:00,29.7,25.1,29.41,North,0,0.0,0.0,83,0.00,,,0.00,VWS V12.08,2013-01-06 13:00:00,
2013-01-06 08:01:00,29.7,25.1,29.41,North,0,0.0,0.0,83,0.00,,,0.00,VWS V12.08,2013-01-06 13:01:00,
2013-01-06 08:02:00,39.9,39.9,29.26,North,0,0.0,0.0,100,0.00,,,0.00,VWS V12.08,2013-01-06 13:02:00,
2013-01-06 08:03:00,29.7,25.1,29.41,North,0,0.0,0.0,83,0.00,,,0.00,VWS V12.08,2013-01-06 13:03:00,
2013-01-06 08:04:00,29.7,25.1,29.41,North,0,0.0,0.0,83,0.00,,,0.00,VWS V12.08,2013-01-06 13:04:00,
2013-01-06 08:05:00,29.7,25.1,29.41,North,0,0.0,0.0,83,0.00,,,0.00,VWS V12.08,2013-01-06 13:05:00,
2013-01-06 08:06:00,29.7,24.6,29.41,North,0,0.0,0.0,81,0.00,,,0.00,VWS V12.08,2013-01-06 13:06:00,
2013-01-06 08:07:00,29.7,24.6,29.41,North,0,0.0,0.0,81,0.00,,,0.00,VWS V12.08,2013-01-06 13:07:00,
2013-01-06 08:08:00,29.7,24.6,29.41,North,0,0.0,0.0,81,0.00,,,0.00,VWS V12.08,2013-01-06 13:08:00,
2013-01-06 08:09:00,29.7,24.6,29.41,North,0,0.0,0.0,81,0.00,,,0.00,VWS V12.08,2013-01-06 13:09:00,
2013-01-06 08:10:00,39.9,39.9,29.26,North,0,0.0,0.0,100,0.00,,,0.00,VWS V12.08,2013-01-06 13:10:00,
2013-01-06 08:11:00,29.7,24.6,29.41,North,0,0.0,0.0,81,0.00,,,0.00,VWS V12.08,2013-01-06 13:11:00,
2013-01-06 08:12:00,29.7,24.6,29.41,North,0,0.0,0.0,81,0.00,,,0.00,VWS V12.08,2013-01-06 13:12:00,
2013-01-06 08:13:00,29.7,24.6,29.41,North,0,0.0,0.0,81,0.00,,,0.00,VWS V12.08,2013-01-06 13:13:00,
2013-01-06 08:14:00,29.7,24.6,29.41,North,0,0.0,0.0,81,0.00,,,0.00,VWS V12.08,2013-01-06 13:14:00,
2013-01-06 08:15:00,29.8,24.7,29.41,North,0,0.0,0.0,81,0.00,,,0.00,VWS V12.08,2013-01-06 13:15:00,
2013-01-06 08:16:00,29.8,24.7,29.41,North,0,0.0,0.0,81,0.00,,,0.00,VWS V12.08,2013-01-06 13:16:00,
2013-01-06 08:17:00,29.8,24.7,29.41,North,0,0.0,0.0,81,0.00,,,0.00,VWS V12.08,2013-01-06 13:17:00,
2013-01-06 08:18:00,40.1,40.1,29.26,North,0,0.0,0.0,100,0.00,,,0.00,VWS V12.08,2013-01-06 13:18:00,
2013-01-06 08:19:00,30.0,24.9,29.41,North,0,0.0,0.0,81,0.00,,,0.00,VWS V12.08,2013-01-06 13:19:00,
2013-01-06 08:20:00,30.0,24.9,29.41,North,0,0.0,0.0,81,0.00,,,0.00,VWS V12.08,2013-01-06 13:20:00,
2013-01-06 08:21:00,30.0,24.9,29.41,North,0,0.0,0.0,81,0.00,,,0.00,VWS V12.08,2013-01-06 13:21:00,
2013-01-06 08:22:00,30.0,24.9,29.41,North,0,0.0,0.0,81,0.00,,,0.00,VWS V12.08,2013-01-06 13:22:00,
2013-01-06 08:23:00,40.3,40.3,29.26,North,0,0.0,0.0,100,0.00,,,0.00,VWS V12.08,2013-01-06 13:23:00,
2013-01-06 08:24:00,30.0,24.9,29.41,North,0,0.0,0.0,81,0.00,,,0.00,VWS V12.08,2013-01-06 13:24:00,
2013-01-06 08:25:00,30.0,24.9,29.41,North,0,0.0,0.0,81,0.00,,,0.00,VWS V12.08,2013-01-06 13:25:00,
2013-01-06 08:26:00,30.2,25.1,29.41,North,0,0.0,0.0,81,0.00,,,0.00,VWS V12.08,2013-01-06 13:26:00,
2013-01-06 08:27:00,30.2,25.1,29.41,North,0,0.0,0.0,81,0.00,,,0.00,VWS V12.08,2013-01-06 13:27:00,
2013-01-06 08:28:00,40.3,40.3,29.26,North,0,0.0,0.0,100,0.00,,,0.00,VWS V12.08,2013-01-06 13:28:00,
2013-01-06 08:29:00,30.2,24.5,29.41,North,0,0.0,0.0,79,0.00,,,0.00,VWS V12.08,2013-01-06 13:29:00,
2013-01-06 08:30:00,30.4,24.7,29.41,North,0,0.0,0.0,79,0.00,,,0.00,VWS V12.08,2013-01-06 13:30:00,
2013-01-06 08:31:00,30.4,24.7,29.41,North,0,0.0,0.0,79,0.00,,,0.00,VWS V12.08,2013-01-06 13:31:00,
2013-01-06 08:32:00,30.4,24.7,29.41,North,0,0.0,0.0,79,0.00,,,0.00,VWS V12.08,2013-01-06 13:32:00,
2013-01-06 08:33:00,40.3,40.3,29.26,North,0,0.0,0.0,100,0.00,,,0.00,VWS V12.08,2013-01-06 13:33:00,
2013-01-06 08:34:00,30.4,24.7,29.41,North,0,0.0,0.0,79,0.00,,,0.00,VWS V12.08,2013-01-06 13:34:00,
2013-01-06 08:35:00,30.6,24.2,29.41,North,0,0.0,0.0,77,0.00,,,0.00,VWS V12.08,2013-01-06 13:35:00,
2013-01-06 08:36:00,30.6,24.2,29.41,North,0,0.0,0.0,77,0.00,,,0.00,VWS V12.08,2013-01-06 13:36:00,
2013-01-06 08:37:00,30.7,24.4,29.41,North,0,0.0,0.0,77,0.00,,,0.00,VWS V12.08,2013-01-06 13:37:00,
2013-01-06 08:38:00,40.3,40.3,29.26,North,0,0.0,0.0,100,0.00,,,0.00,VWS V12.08,2013-01-06 13:38:00,
2013-01-06 08:39:00,30.7,24.4,29.41,North,0,0.0,0.0,77,0.00,,,0.00,VWS V12.08,2013-01-06 13:39:00,
2013-01-06 08:40:00,30.7,24.4,29.41,North,0,0.0,0.0,77,0.00,,,0.00,VWS V12.08,2013-01-06 13:40:00,
2013-01-06 08:41:00,30.7,24.4,29.41,North,0,0.0,0.0,77,0.00,,,0.00,VWS V12.08,2013-01-06 13:41:00,
2013-01-06 08:42:00,31.5,25.1,29.41,North,0,0.0,0.0,77,0.00,,,0.00,VWS V12.08,2013-01-06 13:42:00,
2013-01-06 08:43:00,31.6,24.6,29.41,North,0,0.0,0.0,75,0.00,,,0.00,VWS V12.08,2013-01-06 13:43:00,
2013-01-06 08:44:00,31.6,24.6,29.41,North,0,0.0,0.0,75,0.00,,,0.00,VWS V12.08,2013-01-06 13:44:00,
2013-01-06 08:45:00,31.8,24.2,29.41,North,0,0.0,0.0,73,0.00,,,0.00,VWS V12.08,2013-01-06 13:45:00,
2013-01-06 08:46:00,40.3,40.3,29.26,North,0,0.0,0.0,100,0.00,,,0.00,VWS V12.08,2013-01-06 13:46:00,
2013-01-06 08:47:00,32.0,23.7,29.41,North,0,0.0,0.0,71,0.00,,,0.00,VWS V12.08,2013-01-06 13:47:00,
2013-01-06 08:48:00,32.2,23.9,29.41,North,0,0.0,0.0,71,0.00,,,0.00,VWS V12.08,2013-01-06 13:48:00,
2013-01-06 08:49:00,32.2,23.9,29.41,North,0,0.0,0.0,71,0.00,,,0.00,VWS V12.08,2013-01-06 13:49:00,
2013-01-06 08:50:00,32.4,23.3,29.41,North,0,0.0,0.0,69,0.00,,,0.00,VWS V12.08,2013-01-06 13:50:00,
2013-01-06 08:51:00,40.3,40.3,29.26,North,0,0.0,0.0,100,0.00,,,0.00,VWS V12.08,2013-01-06 13:51:00,
2013-01-06 08:52:00,32.5,23.5,29.41,North,0,0.0,0.0,69,0.00,,,0.00,VWS V12.08,2013-01-06 13:52:00,
2013-01-06 08:53:00,32.5,23.5,29.41,North,0,0.0,0.0,69,0.00,,,0.00,VWS V12.08,2013-01-06 13:53:00,
2013-01-06 08:54:00,32.7,23.0,29.41,North,0,0.0,0.0,67,0.00,,,0.00,VWS V12.08,2013-01-06 13:54:00,
2013-01-06 08:55:00,32.7,23.0,29.41,North,0,0.0,0.0,67,0.00,,,0.00,VWS V12.08,2013-01-06 13:55:00,
2013-01-06 08:56:00,40.3,40.3,29.26,North,0,0.0,0.0,100,0.00,,,0.00,VWS V12.08,2013-01-06 13:56:00,
2013-01-06 08:57:00,32.7,23.0,29.41,North,0,0.0,0.0,67,0.00,,,0.00,VWS V12.08,2013-01-06 13:57:00,
2013-01-06 08:58:00,32.9,23.2,29.41,North,0,0.0,0.0,67,0.00,,,0.00,VWS V12.08,2013-01-06 13:58:00,
2013-01-06 08:59:00,32.9,23.2,29.41,North,0,0.0,0.0,67,0.00,,,0.00,VWS V12.08,2013-01-06 13:59:00,
2013-01-06 09:00:00,33.1,23.3,29.41,North,0,0.0,0.0,67,0.00,,,0.00,VWS V12.08,2013-01-06 14:00:00,
2013-01-06 09:01:00,40.3,40.3,29.26,North,0,0.0,0.0,100,0.00,,,0.00,VWS V12.08,2013-01-06 14:01:00,
2013-01-06 09:02:00,33.1,22.6,29.41,North,0,0.0,0.0,65,0.00,,,0.00,VWS V12.08,2013-01-06 14:02:00,
2013-01-06 09:03:00,33.1,22.6,29.41,North,0,0.0,0.0,65,0.00,,,0.00,VWS V12.08,2013-01-06 14:03:00,
2013-01-06 09:04:00,33.3,22.8,29.41,North,0,0.0,0.0,65,0.00,,,0.00,VWS V12.08,2013-01-06 14:04:00,
2013-01-06 09:05:00,33.3,22.8,29.41,North,0,0.0,0.0,65,0.00,,,0.00,VWS V12.08,2013-01-06 14:05:00,
2013-01-06 09:06:00,40.5,40.5,29.26,North,0,0.0,0.0,100,0.00,,,0.00,VWS V12.08,2013-01-06 14:06:00,
2013-01-06 09:07:00,33.3,22.8,29.41,North,0,0.0,0.0,65,0.00,,,0.00,VWS V12.08,2013-01-06 14:07:00,
2013-01-06 09:08:00,33.6,23.1,29.41,North,0,0.0,0.0,65,0.00,,,0.00,VWS V12.08,2013-01-06 14:08:00,
2013-01-06 09:09:00,33.6,23.1,29.41,North,0,0.0,0.0,65,0.00,,,0.00,VWS V12.08,2013-01-06 14:09:00,
2013-01-06 09:10:00,33.6,23.1,29.41,North,0,0.0,0.0,65,0.00,,,0.00,VWS V12.08,2013-01-06 14:10:00,
2013-01-06 09:11:00,33.6,21.6,29.41,North,0,0.0,0.0,61,0.00,,,0.00,VWS V12.08,2013-01-06 14:11:00,
2013-01-06 09:12:00,40.5,40.5,29.26,North,0,0.0,0.0,100,0.00,,,0.00,VWS V12.08,2013-01-06 14:12:00,
2013-01-06 09:13:00,33.8,19.4,29.41,North,0,0.0,0.0,55,0.00,,,0.00,VWS V12.08,2013-01-06 14:13:00,
2013-01-06 09:14:00,34.0,19.5,29.41,North,0,0.0,0.0,55,0.00,,,0.00,VWS V12.08,2013-01-06 14:14:00,
2013-01-06 09:15:00,34.0,19.5,29.41,North,0,0.0,0.0,55,0.00,,,0.00,VWS V12.08,2013-01-06 14:15:00,
2013-01-06 09:16:00,34.2,19.7,29.41,North,0,0.0,0.0,55,0.00,,,0.00,VWS V12.08,2013-01-06 14:16:00,
2013-01-06 09:17:00,34.3,19.9,29.41,North,0,0.0,0.0,55,0.00,,,0.00,VWS V12.08,2013-01-06 14:17:00,
2013-01-06 09:18:00,40.5,40.5,29.26,North,0,0.0,0.0,100,0.00,,,0.00,VWS V12.08,2013-01-06 14:18:00,
2013-01-06 09:19:00,34.3,19.9,29.41,North,0,0.0,0.0,55,0.00,,,0.00,VWS V12.08,2013-01-06 14:19:00,
2013-01-06 09:20:00,34.3,19.9,29.41,North,0,0.0,0.0,55,0.00,,,0.00,VWS V12.08,2013-01-06 14:20:00,
2013-01-06 09:21:00,34.5,20.0,29.41,North,0,0.0,0.0,55,0.00,,,0.00,VWS V12.08,2013-01-06 14:21:00,
2013-01-06 09:22:00,34.5,20.0,29.41,North,0,0.0,0.0,55,0.00,,,0.00,VWS V12.08,2013-01-06 14:22:00,
2013-01-06 09:23:00,34.7,20.2,29.41,North,0,0.0,0.0,55,0.00,,,0.00,VWS V12.08,2013-01-06 14:23:00,
2013-01-06 09:24:00,34.7,17.5,29.41,North,0,0.0,0.0,49,0.00,,,0.00,VWS V12.08,2013-01-06 14:24:00,
2013-01-06 09:25:00,34.9,17.7,29.41,North,0,0.0,0.0,49,0.00,,,0.00,VWS V12.08,2013-01-06 14:25:00,
2013-01-06 09:26:00,34.9,17.7,29.41,North,0,0.0,0.0,49,0.00,,,0.00,VWS V12.08,2013-01-06 14:26:00,
2013-01-06 09:27:00,40.6,40.6,29.26,North,0,0.0,0.0,100,0.00,,,0.00,VWS V12.08,2013-01-06 14:27:00,
2013-01-06 09:28:00,34.9,17.7,29.41,North,0,0.0,0.0,49,0.00,,,0.00,VWS V12.08,2013-01-06 14:28:00,
2013-01-06 09:29:00,34.9,17.7,29.41,North,0,0.0,0.0,49,0.00,,,0.00,VWS V12.08,2013-01-06 14:29:00,
2013-01-06 09:30:00,34.9,17.7,29.41,North,0,0.0,0.0,49,0.00,,,0.00,VWS V12.08,2013-01-06 14:30:00,
2013-01-06 09:31:00,34.9,17.7,29.41,North,0,0.0,0.0,49,0.00,,,0.00,VWS V12.08,2013-01-06 14:31:00,
2013-01-06 09:32:00,40.6,40.6,29.26,North,0,0.0,0.0,100,0.00,,,0.00,VWS V12.08,2013-01-06 14:32:00,
2013-01-06 09:33:00,34.9,17.7,29.41,North,0,0.0,0.0,49,0.00,,,0.00,VWS V12.08,2013-01-06 14:33:00,
2013-01-06 09:34:00,35.2,18.0,29.41,North,0,0.0,0.0,49,0.00,,,0.00,VWS V12.08,2013-01-06 14:34:00,
2013-01-06 09:35:00,35.2,18.0,29.41,North,0,0.0,0.0,49,0.00,,,0.00,VWS V12.08,2013-01-06 14:35:00,
2013-01-06 09:36:00,35.2,18.0,29.41,North,0,0.0,0.0,49,0.00,,,0.00,VWS V12.08,2013-01-06 14:36:00,
2013-01-06 09:37:00,40.8,40.8,29.26,North,0,0.0,0.0,100,0.00,,,0.00,VWS V12.08,2013-01-06 14:37:00,
2013-01-06 09:38:00,35.4,18.2,29.41,North,0,0.0,0.0,49,0.00,,,0.00,VWS V12.08,2013-01-06 14:38:00,
2013-01-06 09:39:00,35.4,18.2,29.41,North,0,0.0,0.0,49,0.00,,,0.00,VWS V12.08,2013-01-06 14:39:00,
2013-01-06 09:40:00,35.6,18.3,29.41,North,0,0.0,0.0,49,0.00,,,0.00,VWS V12.08,2013-01-06 14:40:00,
2013-01-06 09:41:00,35.8,18.5,29.41,North,0,0.0,0.0,49,0.00,,,0.00,VWS V12.08,2013-01-06 14:41:00,
2013-01-06 09:42:00,35.8,18.5,29.41,North,0,0.0,0.0,49,0.00,,,0.00,VWS V12.08,2013-01-06 14:42:00,
2013-01-06 09:43:00,35.8,18.5,29.41,North,0,0.0,0.0,49,0.00,,,0.00,VWS V12.08,2013-01-06 14:43:00,
2013-01-06 09:44:00,41.0,41.0,29.26,North,0,0.0,0.0,100,0.00,,,0.00,VWS V12.08,2013-01-06 14:44:00,
2013-01-06 09:45:00,35.8,18.5,29.41,North,0,0.0,0.0,49,0.00,,,0.00,VWS V12.08,2013-01-06 14:45:00,
2013-01-06 09:46:00,35.8,18.5,29.41,North,0,0.0,0.0,49,0.00,,,0.00,VWS V12.08,2013-01-06 14:46:00,
2013-01-06 09:47:00,35.8,18.5,29.41,North,0,0.0,0.0,49,0.00,,,0.00,VWS V12.08,2013-01-06 14:47:00,
2013-01-06 09:48:00,36.1,18.8,29.41,North,0,0.0,0.0,49,0.00,,,0.00,VWS V12.08,2013-01-06 14:48:00,
2013-01-06 09:49:00,36.1,18.8,29.41,North,0,0.0,0.0,49,0.00,,,0.00,VWS V12.08,2013-01-06 14:49:00,
2013-01-06 09:50:00,41.2,41.2,29.29,North,0,0.0,0.0,100,0.00,,,0.00,VWS V12.08,2013-01-06 14:50:00,
2013-01-06 09:51:00,36.1,18.8,29.41,North,0,0.0,0.0,49,0.00,,,0.00,VWS V12.08,2013-01-06 14:51:00,
2013-01-06 09:52:00,36.1,18.8,29.41,North,0,0.0,0.0,49,0.00,,,0.00,VWS V12.08,2013-01-06 14:52:00,
2013-01-06 09:53:00,36.0,18.7,29.41,North,0,0.0,0.0,49,0.00,,,0.00,VWS V12.08,2013-01-06 14:53:00,
2013-01-06 09:54:00,36.1,18.8,29.41,North,0,0.0,0.0,49,0.00,,,0.00,VWS V12.08,2013-01-06 14:54:00,
2013-01-06 09:55:00,41.2,41.2,29.29,North,0,0.0,0.0,100,0.00,,,0.00,VWS V12.08,2013-01-06 14:55:00,
2013-01-06 09:56:00,36.1,18.8,29.41,North,0,0.0,0.0,49,0.00,,,0.00,VWS V12.08,2013-01-06 14:56:00,
2013-01-06 09:57:00,36.3,19.0,29.41,North,0,0.0,0.0,49,0.00,,,0.00,VWS V12.08,2013-01-06 14:57:00,
2013-01-06 09:58:00,36.3,19.0,29.41,North,0,0.0,0.0,49,0.00,,,0.00,VWS V12.08,2013-01-06 14:58:00,
2013-01-06 09:59:00,36.0,18.7,29.41,North,0,0.0,0.0,49,0.00,,,0.00,VWS V12.08,2013-01-06 14:59:00,
2013-01-06 10:00:00,36.0,18.7,29.41,North,0,0.0,0.0,49,0.00,,,0.00,VWS V12.08,2013-01-06 15:00:00,
2013-01-06 10:01:00,36.1,18.8,29.41,North,0,0.0,0.0,49,0.00,,,0.00,VWS V12.08,2013-01-06 15:01:00,
2013-01-06 10:02:00,36.1,18.8,29.41,North,0,0.0,0.0,49,0.00,,,0.00,VWS V12.08,2013-01-06 15:02:00,
2013-01-06 10:03:00,41.5,41.5,29.29,North,0,0.0,0.0,100,0.00,,,0.00,VWS V12.08,2013-01-06 15:03:00,
2013-01-06 10:04:00,36.1,18.8,29.41,North,0,0.0,0.0,49,0.00,,,0.00,VWS V12.08,2013-01-06 15:04:00,
2013-01-06 10:05:00,36.3,19.0,29.41,North,0,0.0,0.0,49,0.00,,,0.00,VWS V12.08,2013-01-06 15:05:00,
2013-01-06 10:06:00,36.3,19.0,29.41,North,0,0.0,0.0,49,0.00,,,0.00,VWS V12.08,2013-01-06 15:06:00,
2013-01-06 10:07:00,36.3,19.0,29.41,North,0,0.0,0.0,49,0.00,,,0.00,VWS V12.08,2013-01-06 15:07:00,
2013-01-06 10:08:00,41.7,41.7,29.29,North,0,0.0,0.0,100,0.00,,,0.00,VWS V12.08,2013-01-06 15:08:00,
2013-01-06 10:09:00,36.3,16.0,29.41,North,0,0.0,0.0,43,0.00,,,0.00,VWS V12.08,2013-01-06 15:09:00,
2013-01-06 10:10:00,36.3,16.0,29.41,North,0,0.0,0.0,43,0.00,,,0.00,VWS V12.08,2013-01-06 15:10:00,
2013-01-06 10:11:00,36.3,19.0,29.41,North,0,0.0,0.0,49,0.00,,,0.00,VWS V12.08,2013-01-06 15:11:00,
2013-01-06 10:12:00,36.3,16.0,29.41,North,0,0.0,0.0,43,0.00,,,0.00,VWS V12.08,2013-01-06 15:12:00,
2013-01-06 10:13:00,41.9,41.9,29.29,North,0,0.0,0.0,100,0.00,,,0.00,VWS V12.08,2013-01-06 15:13:00,
2013-01-06 10:14:00,36.5,16.1,29.41,North,0,0.0,0.0,43,0.00,,,0.00,VWS V12.08,2013-01-06 15:14:00,
2013-01-06 10:15:00,36.7,16.3,29.41,North,0,0.0,0.0,43,0.00,,,0.00,VWS V12.08,2013-01-06 15:15:00,
2013-01-06 10:16:00,36.7,16.3,29.41,North,0,0.0,0.0,43,0.00,,,0.00,VWS V12.08,2013-01-06 15:16:00,
2013-01-06 10:17:00,36.7,16.3,29.41,North,0,0.0,0.0,43,0.00,,,0.00,VWS V12.08,2013-01-06 15:17:00,
2013-01-06 10:18:00,41.9,41.9,29.29,North,0,0.0,0.0,100,0.00,,,0.00,VWS V12.08,2013-01-06 15:18:00,
2013-01-06 10:19:00,36.9,16.5,29.41,North,0,0.0,0.0,43,0.00,,,0.00,VWS V12.08,2013-01-06 15:19:00,
2013-01-06 10:20:00,36.9,16.5,29.41,North,0,0.0,0.0,43,0.00,,,0.00,VWS V12.08,2013-01-06 15:20:00,
2013-01-06 10:21:00,37.0,16.6,29.41,North,0,0.0,0.0,43,0.00,,,0.00,VWS V12.08,2013-01-06 15:21:00,
2013-01-06 10:22:00,37.0,16.6,29.41,North,0,0.0,0.0,43,0.00,,,0.00,VWS V12.08,2013-01-06 15:22:00,
2013-01-06 10:23:00,42.1,42.1,29.29,North,0,0.0,0.0,100,0.00,,,0.00,VWS V12.08,2013-01-06 15:23:00,
2013-01-06 10:24:00,37.0,16.6,29.41,North,0,0.0,0.0,43,0.00,,,0.00,VWS V12.08,2013-01-06 15:24:00,
2013-01-06 10:25:00,37.2,16.8,29.41,North,0,0.0,0.0,43,0.00,,,0.00,VWS V12.08,2013-01-06 15:25:00,
2013-01-06 10:26:00,37.2,16.8,29.41,North,0,0.0,0.0,43,0.00,,,0.00,VWS V12.08,2013-01-06 15:26:00,
2013-01-06 10:27:00,37.0,16.6,29.41,North,0,0.0,0.0,43,0.00,,,0.00,VWS V12.08,2013-01-06 15:27:00,
2013-01-06 10:28:00,37.0,16.6,29.41,North,0,0.0,0.0,43,0.00,,,0.00,VWS V12.08,2013-01-06 15:28:00,
2013-01-06 10:29:00,37.0,16.6,29.41,North,0,0.0,0.0,43,0.00,,,0.00,VWS V12.08,2013-01-06 15:29:00,
2013-01-06 10:30:00,41.9,41.9,29.29,North,0,0.0,0.0,100,0.00,,,0.00,VWS V12.08,2013-01-06 15:30:00,
2013-01-06 10:31:00,37.2,16.8,29.41,North,0,0.0,0.0,43,0.00,,,0.00,VWS V12.08,2013-01-06 15:31:00,
2013-01-06 10:32:00,37.2,16.8,29.41,North,0,0.0,0.0,43,0.00,,,0.00,VWS V12.08,2013-01-06 15:32:00,
2013-01-06 10:33:00,37.2,16.8,29.41,North,0,0.0,0.0,43,0.00,,,0.00,VWS V12.08,2013-01-06 15:33:00,
2013-01-06 10:34:00,37.4,17.0,29.44,North,0,0.0,0.0,43,0.00,,,0.00,VWS V12.08,2013-01-06 15:34:00,
2013-01-06 10:35:00,42.1,42.1,29.29,North,0,0.0,0.0,100,0.00,,,0.00,VWS V12.08,2013-01-06 15:35:00,
2013-01-06 10:36:00,37.4,17.0,29.44,North,0,0.0,0.0,43,0.00,,,0.00,VWS V12.08,2013-01-06 15:36:00,
2013-01-06 10:37:00,37.4,17.0,29.44,North,0,0.0,0.0,43,0.00,,,0.00,VWS V12.08,2013-01-06 15:37:00,
2013-01-06 10:38:00,37.4,17.0,29.44,North,0,0.0,0.0,43,0.00,,,0.00,VWS V12.08,2013-01-06 15:38:00,
2013-01-06 10:39:00,37.4,17.0,29.44,North,0,0.0,0.0,43,0.00,,,0.00,VWS V12.08,2013-01-06 15:39:00,
2013-01-06 10:40:00,42.1,42.1,29.29,North,0,0.0,0.0,100,0.00,,,0.00,VWS V12.08,2013-01-06 15:40:00,
2013-01-06 10:41:00,37.6,17.1,29.44,North,0,0.0,0.0,43,0.00,,,0.00,VWS V12.08,2013-01-06 15:41:00,
2013-01-06 10:42:00,37.6,17.1,29.44,North,0,0.0,0.0,43,0.00,,,0.00,VWS V12.08,2013-01-06 15:42:00,
2013-01-06 10:43:00,37.6,17.1,29.44,North,0,0.0,0.0,43,0.00,,,0.00,VWS V12.08,2013-01-06 15:43:00,
2013-01-06 10:44:00,37.6,17.1,29.44,North,0,0.0,0.0,43,0.00,,,0.00,VWS V12.08,2013-01-06 15:44:00,
2013-01-06 10:45:00,42.3,42.3,29.29,North,0,0.0,0.0,100,0.00,,,0.00,VWS V12.08,2013-01-06 15:45:00,
2013-01-06 10:46:00,37.9,17.5,29.44,North,0,0.0,0.0,43,0.00,,,0.00,VWS V12.08,2013-01-06 15:46:00,
2013-01-06 10:47:00,37.9,17.5,29.44,North,0,0.0,0.0,43,0.00,,,0.00,VWS V12.08,2013-01-06 15:47:00,
2013-01-06 10:48:00,37.9,17.5,29.44,North,0,0.0,0.0,43,0.00,,,0.00,VWS V12.08,2013-01-06 15:48:00,
2013-01-06 10:49:00,37.9,17.5,29.44,North,0,0.0,0.0,43,0.00,,,0.00,VWS V12.08,2013-01-06 15:49:00,
2013-01-06 10:50:00,42.1,42.1,29.29,North,0,0.0,0.0,100,0.00,,,0.00,VWS V12.08,2013-01-06 15:50:00,
2013-01-06 10:51:00,37.9,17.5,29.44,North,0,0.0,0.0,43,0.00,,,0.00,VWS V12.08,2013-01-06 15:51:00,
2013-01-06 10:52:00,37.9,17.5,29.44,North,0,0.0,0.0,43,0.00,,,0.00,VWS V12.08,2013-01-06 15:52:00,
2013-01-06 10:53:00,37.9,17.5,29.44,North,0,0.0,0.0,43,0.00,,,0.00,VWS V12.08,2013-01-06 15:53:00,
2013-01-06 10:54:00,37.9,17.5,29.44,North,0,0.0,0.0,43,0.00,,,0.00,VWS V12.08,2013-01-06 15:54:00,
2013-01-06 10:55:00,42.1,41.3,29.29,North,0,0.0,0.0,97,0.00,,,0.00,VWS V12.08,2013-01-06 15:55:00,
2013-01-06 10:56:00,37.9,17.5,29.44,North,0,0.0,0.0,43,0.00,,,0.00,VWS V12.08,2013-01-06 15:56:00,
2013-01-06 10:57:00,38.1,17.6,29.44,North,0,0.0,0.0,43,0.00,,,0.00,VWS V12.08,2013-01-06 15:57:00,
2013-01-06 10:58:00,38.1,17.6,29.44,North,0,0.0,0.0,43,0.00,,,0.00,VWS V12.08,2013-01-06 15:58:00,
2013-01-06 10:59:00,38.1,17.6,29.44,North,0,0.0,0.0,43,0.00,,,0.00,VWS V12.08,2013-01-06 15:59:00,
2013-01-06 11:00:00,38.3,17.8,29.44,North,0,0.0,0.0,43,0.00,,,0.00,VWS V12.08,2013-01-06 16:00:00,
2013-01-06 11:01:00,38.3,17.8,29.44,North,0,0.0,0.0,43,0.00,,,0.00,VWS V12.08,2013-01-06 16:01:00,
2013-01-06 11:02:00,42.1,40.2,29.29,North,0,0.0,0.0,93,0.00,,,0.00,VWS V12.08,2013-01-06 16:02:00,
2013-01-06 11:03:00,38.5,17.9,29.44,North,0,0.0,0.0,43,0.00,,,0.00,VWS V12.08,2013-01-06 16:03:00,
2013-01-06 11:04:00,38.5,17.9,29.44,North,0,0.0,0.0,43,0.00,,,0.00,VWS V12.08,2013-01-06 16:04:00,
2013-01-06 11:05:00,38.5,17.9,29.44,North,0,0.0,0.0,43,0.00,,,0.00,VWS V12.08,2013-01-06 16:05:00,
2013-01-06 11:06:00,38.5,17.9,29.44,North,0,0.0,0.0,43,0.00,,,0.00,VWS V12.08,2013-01-06 16:06:00,
2013-01-06 11:07:00,42.3,40.4,29.29,North,0,0.0,0.0,93,0.00,,,0.00,VWS V12.08,2013-01-06 16:07:00,
2013-01-06 11:08:00,38.7,18.1,29.44,North,0,0.0,0.0,43,0.00,,,0.00,VWS V12.08,2013-01-06 16:08:00,
2013-01-06 11:09:00,38.8,18.3,29.44,North,0,0.0,0.0,43,0.00,,,0.00,VWS V12.08,2013-01-06 16:09:00,
2013-01-06 11:10:00,38.8,18.3,29.44,North,0,0.0,0.0,43,0.00,,,0.00,VWS V12.08,2013-01-06 16:10:00,
2013-01-06 11:11:00,39.0,18.4,29.44,North,0,0.0,0.0,43,0.00,,,0.00,VWS V12.08,2013-01-06 16:11:00,
2013-01-06 11:12:00,42.3,40.4,29.29,North,0,0.0,0.0,93,0.00,,,0.00,VWS V12.08,2013-01-06 16:12:00,
2013-01-06 11:13:00,39.2,17.5,29.44,North,0,0.0,0.0,41,0.00,,,0.00,VWS V12.08,2013-01-06 16:13:00,
2013-01-06 11:14:00,39.2,17.5,29.44,North,0,0.0,0.0,41,0.00,,,0.00,VWS V12.08,2013-01-06 16:14:00,
2013-01-06 11:15:00,39.4,17.7,29.44,North,0,0.0,0.0,41,0.00,,,0.00,VWS V12.08,2013-01-06 16:15:00,
2013-01-06 11:16:00,39.6,17.8,29.44,North,0,0.0,0.0,41,0.00,,,0.00,VWS V12.08,2013-01-06 16:16:00,
2013-01-06 11:17:00,42.4,39.4,29.29,North,0,0.0,0.0,89,0.00,,,0.00,VWS V12.08,2013-01-06 16:17:00,
2013-01-06 11:18:00,39.7,18.0,29.44,North,0,0.0,0.0,41,0.00,,,0.00,VWS V12.08,2013-01-06 16:18:00,
2013-01-06 11:19:00,39.7,18.0,29.44,North,0,0.0,0.0,41,0.00,,,0.00,VWS V12.08,2013-01-06 16:19:00,
2013-01-06 11:20:00,39.9,18.1,29.44,North,0,0.0,0.0,41,0.00,,,0.00,VWS V12.08,2013-01-06 16:20:00,
2013-01-06 11:21:00,39.9,18.1,29.44,North,0,0.0,0.0,41,0.00,,,0.00,VWS V12.08,2013-01-06 16:21:00,
2013-01-06 11:22:00,42.4,39.4,29.29,North,0,0.0,0.0,89,0.00,,,0.00,VWS V12.08,2013-01-06 16:22:00,
2013-01-06 11:23:00,39.9,18.1,29.44,North,0,0.0,0.0,41,0.00,,,0.00,VWS V12.08,2013-01-06 16:23:00,
2013-01-06 11:24:00,40.3,18.5,29.44,North,0,0.0,0.0,41,0.00,,,0.00,VWS V12.08,2013-01-06 16:24:00,
2013-01-06 11:25:00,40.3,18.5,29.44,North,0,0.0,0.0,41,0.00,,,0.00,VWS V12.08,2013-01-06 16:25:00,
2013-01-06 11:26:00,40.5,18.6,29.44,North,0,0.0,0.0,41,0.00,,,0.00,VWS V12.08,2013-01-06 16:26:00,
2013-01-06 11:27:00,40.5,18.6,29.44,North,0,0.0,0.0,41,0.00,,,0.00,VWS V12.08,2013-01-06 16:27:00,
2013-01-06 11:28:00,42.4,39.4,29.29,North,0,0.0,0.0,89,0.00,,,0.00,VWS V12.08,2013-01-06 16:28:00,
2013-01-06 11:29:00,40.5,18.6,29.44,North,0,0.0,0.0,41,0.00,,,0.00,VWS V12.08,2013-01-06 16:29:00,
2013-01-06 11:30:00,40.6,18.8,29.44,North,0,0.0,0.0,41,0.00,,,0.00,VWS V12.08,2013-01-06 16:30:00,
2013-01-06 11:31:00,40.6,18.8,29.44,North,0,0.0,0.0,41,0.00,,,0.00,VWS V12.08,2013-01-06 16:31:00,
2013-01-06 11:32:00,40.6,18.8,29.44,North,0,0.0,0.0,41,0.00,,,0.00,VWS V12.08,2013-01-06 16:32:00,
2013-01-06 11:33:00,40.6,18.8,29.44,North,0,0.0,0.0,41,0.00,,,0.00,VWS V12.08,2013-01-06 16:33:00,
2013-01-06 11:34:00,42.4,38.8,29.26,North,0,0.0,0.0,87,0.00,,,0.00,VWS V12.08,2013-01-06 16:34:00,
2013-01-06 11:35:00,40.8,19.0,29.41,North,0,0.0,0.0,41,0.00,,,0.00,VWS V12.08,2013-01-06 16:35:00,
2013-01-06 11:36:00,41.0,19.1,29.41,North,0,0.0,0.0,41,0.00,,,0.00,VWS V12.08,2013-01-06 16:36:00,
2013-01-06 11:37:00,41.0,19.1,29.41,North,0,0.0,0.0,41,0.00,,,0.00,VWS V12.08,2013-01-06 16:37:00,
2013-01-06 11:38:00,41.2,19.3,29.41,North,0,0.0,0.0,41,0.00,,,0.00,VWS V12.08,2013-01-06 16:38:00,
2013-01-06 11:39:00,41.2,19.3,29.41,North,0,0.0,0.0,41,0.00,,,0.00,VWS V12.08,2013-01-06 16:39:00,
2013-01-06 11:40:00,42.6,39.0,29.26,North,0,0.0,0.0,87,0.00,,,0.00,VWS V12.08,2013-01-06 16:40:00,
2013-01-06 11:41:00,41.5,19.6,29.41,North,0,0.0,0.0,41,0.00,,,0.00,VWS V12.08,2013-01-06 16:41:00,
2013-01-06 11:42:00,41.5,19.6,29.41,North,0,0.0,0.0,41,0.00,,,0.00,VWS V12.08,2013-01-06 16:42:00,
2013-01-06 11:43:00,41.5,19.6,29.41,North,0,0.0,0.0,41,0.00,,,0.00,VWS V12.08,2013-01-06 16:43:00,
2013-01-06 11:44:00,41.5,19.6,29.41,North,0,0.0,0.0,41,0.00,,,0.00,VWS V12.08,2013-01-06 16:44:00,
2013-01-06 11:45:00,43.0,38.8,29.26,North,0,0.0,0.0,85,0.00,,,0.00,VWS V12.08,2013-01-06 16:45:00,
2013-01-06 11:46:00,41.9,19.9,29.41,North,0,0.0,0.0,41,0.00,,,0.00,VWS V12.08,2013-01-06 16:46:00,
2013-01-06 11:47:00,42.1,20.1,29.41,North,0,0.0,0.0,41,0.00,,,0.00,VWS V12.08,2013-01-06 16:47:00,
2013-01-06 11:48:00,42.1,20.1,29.41,North,0,0.0,0.0,41,0.00,,,0.00,VWS V12.08,2013-01-06 16:48:00,
2013-01-06 11:49:00,42.1,20.1,29.41,North,0,0.0,0.0,41,0.00,,,0.00,VWS V12.08,2013-01-06 16:49:00,
2013-01-06 11:50:00,43.5,39.3,29.26,North,0,0.0,0.0,85,0.00,,,0.00,VWS V12.08,2013-01-06 16:50:00,
2013-01-06 11:51:00,42.1,20.1,29.41,North,0,0.0,0.0,41,0.00,,,0.00,VWS V12.08,2013-01-06 16:51:00,
2013-01-06 11:52:00,42.3,20.3,29.41,North,0,0.0,0.0,41,0.00,,,0.00,VWS V12.08,2013-01-06 16:52:00,
2013-01-06 11:53:00,42.3,20.3,29.41,North,0,0.0,0.0,41,0.00,,,0.00,VWS V12.08,2013-01-06 16:53:00,
2013-01-06 11:54:00,42.3,20.3,29.41,North,0,0.0,0.0,41,0.00,,,0.00,VWS V12.08,2013-01-06 16:54:00,
2013-01-06 11:55:00,42.6,20.6,29.41,North,0,0.0,0.0,41,0.00,,,0.00,VWS V12.08,2013-01-06 16:55:00,
2013-01-06 11:56:00,42.8,20.8,29.41,North,0,0.0,0.0,41,0.00,,,0.00,VWS V12.08,2013-01-06 16:56:00,
2013-01-06 11:57:00,42.8,20.8,29.41,North,0,0.0,0.0,41,0.00,,,0.00,VWS V12.08,2013-01-06 16:57:00,
2013-01-06 11:58:00,43.0,20.9,29.41,North,0,0.0,0.0,41,0.00,,,0.00,VWS V12.08,2013-01-06 16:58:00,
2013-01-06 11:59:00,43.0,20.9,29.41,North,0,0.0,0.0,41,0.00,,,0.00,VWS V12.08,2013-01-06 16:59:00,
2013-01-06 12:00:00,43.3,36.0,29.26,North,0,0.0,0.0,75,0.00,,,0.00,VWS V12.08,2013-01-06 17:00:00,
2013-01-06 12:01:00,43.5,21.4,29.41,North,0,0.0,0.0,41,0.00,,,0.00,VWS V12.08,2013-01-06 17:01:00,
2013-01-06 12:02:00,43.5,21.4,29.41,North,0,0.0,0.0,41,0.00,,,0.00,VWS V12.08,2013-01-06 17:02:00,
2013-01-06 12:03:00,43.5,21.4,29.41,North,0,0.0,0.0,41,0.00,,,0.00,VWS V12.08,2013-01-06 17:03:00,
2013-01-06 12:04:00,43.9,21.7,29.41,North,0,0.0,0.0,41,0.00,,,0.00,VWS V12.08,2013-01-06 17:04:00,
2013-01-06 12:05:00,43.9,21.7,29.41,North,0,0.0,0.0,41,0.00,,,0.00,VWS V12.08,2013-01-06 17:05:00,
2013-01-06 12:06:00,43.5,33.3,29.26,North,0,0.0,0.0,67,0.00,,,0.00,VWS V12.08,2013-01-06 17:06:00,
2013-01-06 12:07:00,44.1,21.9,29.41,North,0,0.0,0.0,41,0.00,,,0.00,VWS V12.08,2013-01-06 17:07:00,
2013-01-06 12:08:00,44.2,22.0,29.41,North,0,0.0,0.0,41,0.00,,,0.00,VWS V12.08,2013-01-06 17:08:00,
2013-01-06 12:09:00,44.2,22.0,29.41,North,0,0.0,0.0,41,0.00,,,0.00,VWS V12.08,2013-01-06 17:09:00,
2013-01-06 12:10:00,44.2,22.0,29.41,North,0,0.0,0.0,41,0.00,,,0.00,VWS V12.08,2013-01-06 17:10:00,
2013-01-06 12:11:00,44.4,22.2,29.41,North,0,0.0,0.0,41,0.00,,,0.00,VWS V12.08,2013-01-06 17:11:00,
2013-01-06 12:12:00,43.5,32.5,29.26,North,0,0.0,0.0,65,0.00,,,0.00,VWS V12.08,2013-01-06 17:12:00,
2013-01-06 12:13:00,44.4,22.2,29.41,North,0,0.0,0.0,41,0.00,,,0.00,VWS V12.08,2013-01-06 17:13:00,
2013-01-06 12:14:00,44.6,21.2,29.41,North,0,0.0,0.0,39,0.00,,,0.00,VWS V12.08,2013-01-06 17:14:00,
2013-01-06 12:15:00,44.6,21.2,29.41,North,0,0.0,0.0,39,0.00,,,0.00,VWS V12.08,2013-01-06 17:15:00,
2013-01-06 12:16:00,45.0,21.5,29.41,North,0,0.0,0.0,39,0.00,,,0.00,VWS V12.08,2013-01-06 17:16:00,
2013-01-06 12:17:00,45.0,21.5,29.41,North,0,0.0,0.0,39,0.00,,,0.00,VWS V12.08,2013-01-06 17:17:00,
2013-01-06 12:18:00,45.5,22.0,29.41,North,0,0.0,0.0,39,0.00,,,0.00,VWS V12.08,2013-01-06 17:18:00,
2013-01-06 12:19:00,45.5,22.0,29.41,North,0,0.0,0.0,39,0.00,,,0.00,VWS V12.08,2013-01-06 17:19:00,
2013-01-06 12:20:00,45.7,22.2,29.38,North,0,0.0,0.0,39,0.00,,,0.00,VWS V12.08,2013-01-06 17:20:00,
2013-01-06 12:21:00,45.9,22.3,29.38,North,0,0.0,0.0,39,0.00,,,0.00,VWS V12.08,2013-01-06 17:21:00,
2013-01-06 12:22:00,43.5,31.0,29.26,North,0,0.0,0.0,61,0.00,,,0.00,VWS V12.08,2013-01-06 17:22:00,
2013-01-06 12:23:00,45.9,22.3,29.38,North,0,0.0,0.0,39,0.00,,,0.00,VWS V12.08,2013-01-06 17:23:00,
2013-01-06 12:24:00,46.0,22.5,29.38,North,0,0.0,0.0,39,0.00,,,0.00,VWS V12.08,2013-01-06 17:24:00,
2013-01-06 12:25:00,46.0,22.5,29.38,North,0,0.0,0.0,39,0.00,,,0.00,VWS V12.08,2013-01-06 17:25:00,
2013-01-06 12:26:00,46.0,22.5,29.38,North,0,0.0,0.0,39,0.00,,,0.00,VWS V12.08,2013-01-06 17:26:00,
2013-01-06 12:27:00,46.4,22.8,29.38,North,0,0.0,0.0,39,0.00,,,0.00,VWS V12.08,2013-01-06 17:27:00,
2013-01-06 12:28:00,43.7,32.0,29.26,North,0,0.0,0.0,63,0.00,,,0.00,VWS V12.08,2013-01-06 17:28:00,
2013-01-06 12:29:00,46.4,22.8,29.38,North,0,0.0,0.0,39,0.00,,,0.00,VWS V12.08,2013-01-06 17:29:00,
2013-01-06 12:30:00,46.4,22.8,29.38,North,0,0.0,0.0,39,0.00,,,0.00,VWS V12.08,2013-01-06 17:30:00,
2013-01-06 12:31:00,46.6,23.0,29.38,North,0,0.0,0.0,39,0.00,,,0.00,VWS V12.08,2013-01-06 17:31:00,
2013-01-06 12:32:00,46.8,23.1,29.38,North,0,0.0,0.0,39,0.00,,,0.00,VWS V12.08,2013-01-06 17:32:00,
2013-01-06 12:33:00,46.9,23.3,29.38,North,0,0.0,0.0,39,0.00,,,0.00,VWS V12.08,2013-01-06 17:33:00,
2013-01-06 12:34:00,47.1,23.5,29.38,North,0,0.0,0.0,39,0.00,,,0.00,VWS V12.08,2013-01-06 17:34:00,
2013-01-06 12:35:00,47.3,23.6,29.38,North,0,0.0,0.0,39,0.00,,,0.00,VWS V12.08,2013-01-06 17:35:00,
2013-01-06 12:36:00,44.6,32.0,29.23,North,0,0.0,0.0,61,0.00,,,0.00,VWS V12.08,2013-01-06 17:36:00,
2013-01-06 12:37:00,47.3,23.6,29.38,North,0,0.0,0.0,39,0.00,,,0.00,VWS V12.08,2013-01-06 17:37:00,
2013-01-06 12:38:00,47.5,23.8,29.38,North,0,0.0,0.0,39,0.00,,,0.00,VWS V12.08,2013-01-06 17:38:00,
2013-01-06 12:39:00,47.5,23.8,29.38,North,0,0.0,0.0,39,0.00,,,0.00,VWS V12.08,2013-01-06 17:39:00,
2013-01-06 12:40:00,47.7,23.9,29.38,North,0,0.0,0.0,39,0.00,,,0.00,VWS V12.08,2013-01-06 17:40:00,
2013-01-06 12:41:00,44.8,29.6,29.23,North,0,0.0,0.0,55,0.00,,,0.00,VWS V12.08,2013-01-06 17:41:00,
2013-01-06 12:42:00,47.7,23.9,29.38,North,0,0.0,0.0,39,0.00,,,0.00,VWS V12.08,2013-01-06 17:42:00,
2013-01-06 12:43:00,47.8,24.1,29.38,North,0,0.0,0.0,39,0.00,,,0.00,VWS V12.08,2013-01-06 17:43:00,
2013-01-06 12:44:00,47.8,24.1,29.38,North,0,0.0,0.0,39,0.00,,,0.00,VWS V12.08,2013-01-06 17:44:00,
2013-01-06 12:45:00,47.8,24.1,29.38,North,0,0.0,0.0,39,0.00,,,0.00,VWS V12.08,2013-01-06 17:45:00,
2013-01-06 12:46:00,47.8,24.1,29.38,North,0,0.0,0.0,39,0.00,,,0.00,VWS V12.08,2013-01-06 17:46:00,
2013-01-06 12:47:00,47.8,24.1,29.38,North,0,0.0,0.0,39,0.00,,,0.00,VWS V12.08,2013-01-06 17:47:00,
2013-01-06 12:48:00,48.4,23.3,29.38,North,0,0.0,0.0,37,0.00,,,0.00,VWS V12.08,2013-01-06 17:48:00,
2013-01-06 12:49:00,48.4,23.3,29.38,North,0,0.0,0.0,37,0.00,,,0.00,VWS V12.08,2013-01-06 17:49:00,
2013-01-06 12:50:00,48.6,23.5,29.38,North,0,0.0,0.0,37,0.00,,,0.00,VWS V12.08,2013-01-06 17:50:00,
2013-01-06 12:51:00,48.6,23.5,29.38,North,0,0.0,0.0,37,0.00,,,0.00,VWS V12.08,2013-01-06 17:51:00,
2013-01-06 12:52:00,48.6,23.5,29.38,North,0,0.0,0.0,37,0.00,,,0.00,VWS V12.08,2013-01-06 17:52:00,
2013-01-06 12:53:00,46.4,30.2,29.23,North,0,0.0,0.0,53,0.00,,,0.00,VWS V12.08,2013-01-06 17:53:00,
2013-01-06 12:54:00,48.9,23.8,29.38,North,0,0.0,0.0,37,0.00,,,0.00,VWS V12.08,2013-01-06 17:54:00,
2013-01-06 12:55:00,49.3,24.1,29.38,North,0,0.0,0.0,37,0.00,,,0.00,VWS V12.08,2013-01-06 17:55:00,
2013-01-06 12:56:00,49.3,24.1,29.38,North,0,0.0,0.0,37,0.00,,,0.00,VWS V12.08,2013-01-06 17:56:00,
2013-01-06 12:57:00,49.1,24.0,29.38,North,0,0.0,0.0,37,0.00,,,0.00,VWS V12.08,2013-01-06 17:57:00,
2013-01-06 12:58:00,46.2,26.1,29.23,North,0,0.0,0.0,45,0.00,,,0.00,VWS V12.08,2013-01-06 17:58:00,